FW7377 Weather Reports


time (UTC)temp
F
wind
direction
speed
knots
gust
knots
rain 1hr
in
rain 24hr
in
rain mn
in
humidity
%
barometer
mb
20260507205202 57 68 0.0 0.0 0.00 0.00 0.00 82 1014.8
20260507205101 57 68 0.0 0.0 0.00 0.00 0.00 82 1015.1
20260507205003 57 68 0.0 0.0 0.00 0.00 0.00 82 1015.1
20260507204901 57 68 0.0 0.0 0.00 0.00 0.00 82 1015.0
20260507204801 57 68 0.0 0.0 0.00 0.00 0.00 82 1014.9
20260507204701 57 68 0.0 0.0 0.00 0.00 0.00 82 1014.6
20260507204602 57 68 0.0 0.0 0.00 0.00 0.00 81 1014.7
20260507204501 57 68 0.0 0.0 0.00 0.00 0.00 81 1015.0
20260507204401 57 68 0.0 0.0 0.00 0.00 0.00 81 1015.0
20260507204301 57 68 0.0 0.0 0.00 0.00 0.00 81 1015.1
20260507204201 57 68 0.0 0.0 0.00 0.00 0.00 81 1014.9
20260507204102 57 68 0.0 0.0 0.00 0.00 0.00 82 1014.9
20260507204001 57 68 0.0 0.0 0.00 0.00 0.00 82 1014.9
20260507203902 57 68 0.0 0.0 0.00 0.00 0.00 82 1015.0
20260507203802 57 45 0.0 0.0 0.00 0.00 0.00 82 1014.8
20260507203702 57 45 0.0 0.0 0.00 0.00 0.00 82 1015.0
20260507203602 57 68 0.0 0.0 0.00 0.00 0.00 82 1015.1
20260507203502 57 68 0.0 0.0 0.00 0.00 0.00 82 1014.8
20260507203402 57 68 0.0 0.0 0.00 0.00 0.00 81 1015.0
20260507203303 57 68 0.0 0.0 0.00 0.00 0.00 81 1015.0
20260507203201 57 68 0.0 0.0 0.00 0.00 0.00 81 1014.9
20260507203101 57 68 0.0 0.0 0.00 0.00 0.00 81 1014.9
20260507203002 57 68 0.0 0.0 0.00 0.00 0.00 81 1014.8
20260507202901 57 68 0.0 0.0 0.00 0.00 0.00 81 1014.9
20260507202801 57 68 0.0 0.0 0.00 0.00 0.00 81 1014.8
20260507202701 57 68 0.0 0.0 0.00 0.00 0.00 81 1015.1
20260507202601 57 68 0.0 0.0 0.00 0.00 0.00 81 1015.0
20260507202502 58 68 0.0 0.0 0.00 0.00 0.00 81 1015.0
20260507202401 57 68 0.0 0.0 0.00 0.00 0.00 80 1014.9
20260507202301 57 68 0.0 0.0 0.00 0.00 0.00 80 1015.2
20260507202202 57 68 0.0 0.0 0.00 0.00 0.00 80 1015.0
20260507202101 57 68 0.0 0.0 0.00 0.00 0.00 80 1014.8
20260507202002 58 68 0.0 0.0 0.00 0.00 0.00 80 1014.8
20260507201901 58 68 0.0 0.0 0.00 0.00 0.00 80 1014.9
20260507201801 58 68 0.0 0.0 0.00 0.00 0.00 80 1014.8
20260507201702 58 68 0.0 0.0 0.00 0.00 0.00 80 1014.8
20260507201602 58 68 0.0 0.0 0.00 0.00 0.00 80 1014.8
20260507201502 58 68 0.0 0.0 0.00 0.00 0.00 80 1014.7
20260507201402 58 68 0.0 0.0 0.00 0.00 0.00 80 1014.8
20260507201302 58 68 0.0 0.0 0.00 0.00 0.00 80 1014.8
20260507201201 58 68 0.0 0.0 0.00 0.00 0.00 80 1014.9
20260507201101 58 68 0.0 0.0 0.00 0.00 0.00 80 1015.0
20260507201002 58 68 0.0 0.0 0.00 0.00 0.00 80 1014.9
20260507200902 58 68 0.0 0.0 0.00 0.00 0.00 80 1014.8
20260507200801 58 68 0.0 0.0 0.00 0.00 0.00 80 1014.9
20260507200703 58 68 0.0 0.0 0.00 0.00 0.00 80 1014.7
20260507200601 58 68 0.0 0.0 0.00 0.00 0.00 80 1014.9
20260507200501 58 68 0.0 0.0 0.00 0.00 0.00 80 1014.7
20260507200402 58 68 0.0 0.0 0.00 0.00 0.00 80 1014.9
20260507200302 58 68 0.0 0.0 0.00 0.00 0.00 80 1014.5
20260507200202 58 68 0.0 0.0 0.00 0.00 0.00 80 1014.7
20260507200001 59 68 0.0 0.0 0.00 0.00 0.00 80 1014.5
20260507195902 59 68 0.0 0.0 0.00 0.00 0.00 79 1014.8
20260507195802 59 90 0.0 0.0 0.00 0.00 0.00 79 1014.7
20260507195702 59 68 0.0 0.0 0.00 0.00 0.00 79 1014.6
20260507195602 59 68 0.0 0.0 0.00 0.00 0.00 79 1014.8
20260507195502 59 68 0.0 0.0 0.00 0.00 0.00 79 1014.8
20260507195402 59 90 0.0 0.0 0.00 0.00 0.00 79 1014.7
20260507195305 59 90 0.0 0.0 0.00 0.00 0.00 79 1015.0
20260507195201 59 90 0.0 0.0 0.00 0.00 0.00 79 1014.6
20260507195102 59 90 0.0 0.0 0.00 0.00 0.00 79 1014.8
20260507195002 59 90 0.0 0.0 0.00 0.00 0.00 79 1014.6
20260507194902 59 90 0.0 0.0 0.00 0.00 0.00 79 1014.7
20260507194801 59 90 0.9 1.7 0.00 0.00 0.00 79 1014.9
20260507194701 59 45 1.7 3.5 0.00 0.00 0.00 79 1014.6
20260507194602 60 90 0.0 0.0 0.00 0.00 0.00 79 1014.8
20260507194502 60 90 0.0 0.0 0.00 0.00 0.00 79 1015.1
20260507194402 60 90 0.0 0.0 0.00 0.00 0.00 79 1014.8
20260507194302 60 90 0.0 0.0 0.00 0.00 0.00 79 1014.7
20260507194201 60 90 0.0 0.0 0.00 0.00 0.00 79 1014.9
20260507194102 60 45 0.0 0.0 0.00 0.00 0.00 79 1014.7
20260507194002 60 45 0.0 0.0 0.00 0.00 0.00 79 1014.9
20260507193902 60 45 0.0 0.0 0.00 0.00 0.00 79 1014.7
20260507193802 60 45 0.0 0.0 0.00 0.00 0.00 79 1014.9
20260507193701 60 45 1.7 1.7 0.00 0.00 0.00 79 1015.0
20260507193602 60 45 1.7 3.5 0.00 0.00 0.00 78 1014.8
20260507193502 61 45 0.0 0.0 0.00 0.00 0.00 78 1015.0
20260507193402 61 45 0.0 0.0 0.00 0.00 0.00 78 1014.9
20260507193302 61 45 0.0 0.0 0.00 0.00 0.00 78 1014.6
20260507193201 61 45 0.0 0.0 0.00 0.00 0.00 78 1014.8
20260507193101 61 45 0.0 0.0 0.00 0.00 0.00 77 1014.8
20260507193001 61 45 0.0 0.0 0.00 0.00 0.00 77 1014.5
20260507192902 61 45 0.0 0.0 0.00 0.00 0.00 77 1014.8
20260507192802 61 68 0.0 0.0 0.00 0.00 0.00 77 1014.8
20260507192701 61 270 0.9 1.7 0.00 0.00 0.00 77 1015.0
20260507192602 61 292 0.9 1.7 0.00 0.00 0.00 77 1014.7
20260507192501 61 292 1.7 1.7 0.00 0.00 0.00 77 1014.9
20260507192402 61 270 0.0 0.0 0.00 0.00 0.00 77 1014.8
20260507192305 61 292 0.9 1.7 0.00 0.00 0.00 77 1014.8
20260507192201 61 270 0.9 1.7 0.00 0.00 0.00 77 1014.8
20260507192102 61 292 0.0 0.0 0.00 0.00 0.00 77 1014.8
20260507192002 62 292 0.9 1.7 0.00 0.00 0.00 77 1014.6
20260507191901 62 270 1.7 1.7 0.00 0.00 0.00 76 1014.8
20260507191802 62 270 0.9 1.7 0.00 0.00 0.00 76 1014.9
20260507191701 62 270 0.0 0.0 0.00 0.00 0.00 76 1014.8
20260507191602 62 292 0.0 0.0 0.00 0.00 0.00 76 1014.8
20260507191501 62 90 0.0 0.0 0.00 0.00 0.00 76 1014.7
20260507191401 62 112 0.0 0.0 0.00 0.00 0.00 75 1014.5
20260507191301 62 112 0.0 0.0 0.00 0.00 0.00 75 1014.5
20260507191201 62 45 0.0 0.0 0.00 0.00 0.00 75 1014.7
20260507191101 62 90 0.0 0.0 0.00 0.00 0.00 75 1014.5
20260507191001 62 22 0.0 0.0 0.00 0.00 0.00 75 1014.7
20260507190903 62 45 0.0 0.0 0.00 0.00 0.00 75 1014.7
20260507190802 62 68 0.0 0.0 0.00 0.00 0.00 75 1014.7
20260507190702 62 270 0.0 0.0 0.00 0.00 0.00 75 1014.8
20260507190602 62 225 0.0 0.0 0.00 0.00 0.00 75 1014.8
20260507190502 62 202 0.0 0.0 0.00 0.00 0.00 74 1014.7
20260507190401 62 225 0.0 0.0 0.00 0.00 0.00 74 1014.8
20260507190303 62 0 0.0 0.0 0.00 0.00 0.00 74 1014.8
20260507190202 62 90 0.9 1.7 0.00 0.00 0.00 74 1014.5
20260507190003 62 90 0.0 1.7 0.00 0.00 0.00 74 1014.6
20260507185902 62 90 0.0 0.0 0.00 0.00 0.00 74 1014.6
20260507185801 62 270 1.7 3.5 0.00 0.00 0.00 74 1014.5
20260507185701 62 292 0.9 3.5 0.00 0.00 0.00 74 1014.5
20260507185601 62 292 0.0 1.7 0.00 0.00 0.00 74 1014.6
20260507185501 62 270 1.7 1.7 0.00 0.00 0.00 74 1014.5
20260507185401 62 248 0.9 1.7 0.00 0.00 0.00 74 1014.5
20260507185305 62 270 1.7 3.5 0.00 0.00 0.00 74 1014.5
20260507185201 62 292 0.9 3.5 0.00 0.00 0.00 74 1014.4
20260507185102 62 248 0.9 1.7 0.00 0.00 0.00 74 1014.6
20260507185002 62 292 1.7 3.5 0.00 0.00 0.00 74 1014.8
20260507184901 62 270 0.0 1.7 0.00 0.00 0.00 74 1014.5
20260507184801 62 270 0.0 0.0 0.00 0.00 0.00 74 1014.4
20260507184701 62 90 0.0 0.0 0.00 0.00 0.00 74 1014.8
20260507184601 62 270 0.0 1.7 0.00 0.00 0.00 74 1014.7
20260507184501 62 270 1.7 3.5 0.00 0.00 0.00 74 1014.6
20260507184401 62 292 1.7 3.5 0.00 0.00 0.00 74 1014.5
20260507184301 63 225 0.0 0.0 0.00 0.00 0.00 74 1014.6
20260507184201 63 270 0.0 1.7 0.00 0.00 0.00 74 1014.7
20260507184101 63 270 0.0 0.0 0.00 0.00 0.00 74 1014.9
20260507184001 63 225 0.0 0.0 0.00 0.00 0.00 74 1014.7
20260507183902 63 225 0.0 0.0 0.00 0.00 0.00 73 1014.7
20260507183802 63 225 0.0 0.0 0.00 0.00 0.00 73 1014.8
20260507183702 63 112 0.0 1.7 0.00 0.00 0.00 73 1014.7
20260507183602 63 112 0.0 0.0 0.00 0.00 0.00 73 1014.6
20260507183501 63 90 0.0 0.0 0.00 0.00 0.00 73 1014.6
20260507183401 63 90 0.0 0.0 0.00 0.00 0.00 72 1014.6
20260507183301 63 90 0.9 1.7 0.00 0.00 0.00 72 1014.6
20260507183201 63 68 0.0 0.0 0.00 0.00 0.00 72 1014.5
20260507183101 64 68 0.9 1.7 0.00 0.00 0.00 72 1014.5
20260507183002 64 158 0.0 0.0 0.00 0.00 0.00 72 1014.4
20260507182902 64 202 0.0 0.0 0.00 0.00 0.00 71 1014.5
20260507182801 64 225 0.0 1.7 0.00 0.00 0.00 71 1014.3
20260507182701 64 68 0.0 0.0 0.00 0.00 0.00 71 1014.5
20260507182601 64 68 0.0 0.0 0.00 0.00 0.00 70 1014.4
20260507182502 64 90 0.0 0.0 0.00 0.00 0.00 70 1014.2
20260507182401 64 112 0.0 1.7 0.00 0.00 0.00 70 1014.3
20260507182306 64 68 0.9 1.7 0.00 0.00 0.00 70 1014.4
20260507182202 64 225 0.0 1.7 0.00 0.00 0.00 70 1014.2
20260507182101 64 68 1.7 1.7 0.00 0.00 0.00 69 1014.2
20260507182001 64 270 0.0 1.7 0.00 0.00 0.00 69 1014.4
20260507181901 65 68 0.9 1.7 0.00 0.00 0.00 69 1014.4
20260507181801 65 0 0.0 1.7 0.00 0.00 0.00 68 1014.5
20260507181701 65 270 1.7 3.5 0.00 0.00 0.00 68 1014.2
20260507181602 65 225 0.0 1.7 0.00 0.00 0.00 68 1014.1
20260507181502 65 292 0.9 1.7 0.00 0.00 0.00 68 1014.1
20260507181402 65 270 2.6 6.1 0.00 0.00 0.00 68 1014.3
20260507181302 65 135 1.7 1.7 0.00 0.00 0.00 67 1014.4
20260507181202 65 292 1.7 3.5 0.00 0.00 0.00 67 1014.2
20260507181102 65 292 4.3 7.0 0.00 0.00 0.00 67 1014.1
20260507181002 65 270 1.7 3.5 0.00 0.00 0.00 67 1014.2
20260507180902 66 68 0.9 1.7 0.00 0.00 0.00 66 1014.2
20260507180802 66 68 0.9 1.7 0.00 0.00 0.00 66 1014.2
20260507180701 66 45 2.6 6.1 0.00 0.00 0.00 66 1014.3
20260507180601 66 270 2.6 6.1 0.00 0.00 0.00 66 1014.3
20260507180502 66 292 1.7 5.2 0.00 0.00 0.00 66 1014.5
20260507180401 66 292 1.7 6.1 0.00 0.00 0.00 66 1014.3
20260507180302 66 270 1.7 5.2 0.00 0.00 0.00 66 1014.3
20260507180202 66 112 0.0 1.7 0.00 0.00 0.00 65 1014.4
20260507180002 66 68 1.7 3.5 0.00 0.00 0.00 65 1014.3
20260507175901 67 248 1.7 3.5 0.00 0.00 0.00 65 1014.6
20260507175801 67 22 0.9 3.5 0.00 0.00 0.00 64 1014.4
20260507175701 67 248 1.7 3.5 0.00 0.00 0.00 64 1014.3
20260507175601 67 270 1.7 3.5 0.00 0.00 0.00 64 1014.2
20260507175501 67 22 0.9 3.5 0.00 0.00 0.00 64 1014.4
20260507175401 67 338 0.9 1.7 0.00 0.00 0.00 64 1014.3
20260507175301 67 90 0.9 1.7 0.00 0.00 0.00 64 1014.6
20260507175201 67 68 0.9 1.7 0.00 0.00 0.00 64 1014.5
20260507175101 67 68 0.0 1.7 0.00 0.00 0.00 64 1014.5
20260507175001 67 68 1.7 3.5 0.00 0.00 0.00 63 1014.4
20260507174902 67 292 1.7 1.7 0.00 0.00 0.00 63 1014.5
20260507174802 67 135 0.9 5.2 0.00 0.00 0.00 63 1014.4
20260507174701 67 135 0.9 5.2 0.00 0.00 0.00 63 1014.1
20260507174601 67 112 0.9 3.5 0.00 0.00 0.00 62 1014.5
20260507174502 67 338 0.9 1.7 0.00 0.00 0.00 62 1014.2
20260507174401 67 90 1.7 3.5 0.00 0.00 0.00 62 1014.3
20260507174302 67 112 0.9 1.7 0.00 0.00 0.00 62 1014.3
20260507174201 68 68 2.6 3.5 0.00 0.00 0.00 62 1014.4
20260507174101 68 270 3.5 7.8 0.00 0.00 0.00 61 1014.4
20260507174001 68 68 2.6 6.1 0.00 0.00 0.00 61 1014.3
20260507173901 68 90 0.0 1.7 0.00 0.00 0.00 61 1014.5
20260507173800 68 315 0.9 3.5 0.00 0.00 0.00 61 1014.4
20260507173702 68 292 0.9 1.7 0.00 0.00 0.00 61 1014.4
20260507173601 68 68 0.9 1.7 0.00 0.00 0.00 61 1014.2
20260507173501 68 112 1.7 3.5 0.00 0.00 0.00 61 1014.3
20260507173401 68 112 1.7 3.5 0.00 0.00 0.00 60 1014.4
20260507173301 68 292 0.9 3.5 0.00 0.00 0.00 60 1014.3
20260507173201 68 68 0.9 3.5 0.00 0.00 0.00 60 1014.4
20260507173102 68 90 3.5 7.8 0.00 0.00 0.00 60 1014.3
20260507173001 69 45 0.9 1.7 0.00 0.00 0.00 59 1014.3
20260507172902 69 292 1.7 1.7 0.00 0.00 0.00 59 1014.3
20260507172802 69 202 3.5 7.8 0.00 0.00 0.00 59 1014.1
20260507172702 69 292 1.7 7.8 0.00 0.00 0.00 59 1014.4
20260507172602 69 338 0.0 1.7 0.00 0.00 0.00 58 1014.2
20260507172502 69 292 1.7 5.2 0.00 0.00 0.00 58 1014.2
20260507172402 69 112 0.9 1.7 0.00 0.00 0.00 58 1014.4
20260507172301 69 90 0.9 1.7 0.00 0.00 0.00 58 1014.3
20260507172202 69 270 1.7 6.1 0.00 0.00 0.00 57 1014.3
20260507172102 69 90 0.0 0.0 0.00 0.00 0.00 58 1014.2
20260507172002 69 22 0.9 1.7 0.00 0.00 0.00 58 1014.3
20260507171901 69 90 1.7 1.7 0.00 0.00 0.00 58 1014.2
20260507171801 69 292 3.5 7.8 0.00 0.00 0.00 57 1014.2
20260507171701 70 135 0.9 1.7 0.00 0.00 0.00 58 1014.3
20260507171601 70 135 0.9 1.7 0.00 0.00 0.00 58 1014.4
20260507171501 69 135 0.9 1.7 0.00 0.00 0.00 57 1014.3
20260507171401 70 90 1.7 3.5 0.00 0.00 0.00 57 1014.0
20260507171302 70 248 0.9 1.7 0.00 0.00 0.00 57 1014.2
20260507171201 70 112 0.0 1.7 0.00 0.00 0.00 57 1014.0
20260507171101 70 68 1.7 1.7 0.00 0.00 0.00 56 1014.2
20260507171001 70 292 1.7 1.7 0.00 0.00 0.00 56 1014.2
20260507170901 70 45 0.9 1.7 0.00 0.00 0.00 56 1014.3
20260507170801 70 248 0.9 3.5 0.00 0.00 0.00 55 1014.2
20260507170700 70 45 0.9 1.7 0.00 0.00 0.00 55 1014.2
20260507170601 70 202 1.7 1.7 0.00 0.00 0.00 54 1014.1
20260507170501 70 292 1.7 3.5 0.00 0.00 0.00 53 1014.1
20260507170401 70 112 1.7 1.7 0.00 0.00 0.00 53 1014.2
20260507170301 70 90 1.7 1.7 0.00 0.00 0.00 52 1013.9
20260507170201 70 270 1.7 5.2 0.00 0.00 0.00 52 1014.0
20260507170001 70 90 1.7 3.5 0.00 0.00 0.00 51 1014.3
20260507165902 70 68 1.7 3.5 0.00 0.00 0.00 51 1014.1
20260507165802 70 90 0.9 3.5 0.00 0.00 0.00 51 1014.0
20260507165702 71 180 1.7 1.7 0.00 0.00 0.00 52 1014.2
20260507165601 71 270 1.7 3.5 0.00 0.00 0.00 51 1014.0
20260507165501 71 292 1.7 3.5 0.00 0.00 0.00 51 1014.4
20260507165401 71 90 1.7 5.2 0.00 0.00 0.00 50 1014.0
20260507165301 70 45 2.6 5.2 0.00 0.00 0.00 50 1014.1
20260507165202 71 270 2.6 6.1 0.00 0.00 0.00 50 1014.2
20260507165102 71 248 1.7 3.5 0.00 0.00 0.00 50 1014.3
20260507165001 71 248 3.5 6.1 0.00 0.00 0.00 50 1014.3
20260507164901 71 248 3.5 6.1 0.00 0.00 0.00 50 1014.2
20260507164801 71 270 4.3 7.0 0.00 0.00 0.00 50 1014.2
20260507164701 71 292 1.7 5.2 0.00 0.00 0.00 51 1014.2
20260507164601 71 68 1.7 3.5 0.00 0.00 0.00 51 1014.4
20260507164501 71 292 0.9 1.7 0.00 0.00 0.00 51 1014.3
20260507164400 71 90 0.0 1.7 0.00 0.00 0.00 51 1014.3
20260507164302 71 112 1.7 3.5 0.00 0.00 0.00 51 1014.1
20260507164202 71 270 5.2 7.8 0.00 0.00 0.00 50 1014.3
20260507164102 71 90 1.7 6.1 0.00 0.00 0.00 52 1014.5
20260507164001 71 315 1.7 3.5 0.00 0.00 0.00 52 1014.4
20260507163902 71 45 0.0 1.7 0.00 0.00 0.00 52 1014.4
20260507163802 71 270 1.7 3.5 0.00 0.00 0.00 52 1014.1
20260507163701 71 270 2.6 6.1 0.00 0.00 0.00 52 1014.2
20260507163602 71 90 0.9 1.7 0.00 0.00 0.00 52 1014.4
20260507163502 71 45 1.7 1.7 0.00 0.00 0.00 52 1014.4
20260507163402 71 248 1.7 3.5 0.00 0.00 0.00 51 1014.2
20260507163302 72 270 3.5 7.0 0.00 0.00 0.00 51 1014.2
20260507163202 72 292 3.5 7.8 0.00 0.00 0.00 51 1014.3
20260507163101 72 292 1.7 3.5 0.00 0.00 0.00 51 1014.3
20260507163002 72 90 0.9 1.7 0.00 0.00 0.00 50 1014.3
20260507162901 72 45 2.6 7.8 0.00 0.00 0.00 50 1014.3
20260507162801 72 338 1.7 5.2 0.00 0.00 0.00 51 1014.2
20260507162702 72 315 1.7 3.5 0.00 0.00 0.00 51 1014.2
20260507162601 72 90 0.9 1.7 0.00 0.00 0.00 50 1014.4
20260507162502 72 90 0.9 1.7 0.00 0.00 0.00 50 1014.2
20260507162401 72 90 1.7 3.5 0.00 0.00 0.00 50 1014.4
20260507162302 72 292 1.7 1.7 0.00 0.00 0.00 50 1014.3
20260507162201 72 68 0.9 1.7 0.00 0.00 0.00 50 1014.4
20260507162101 72 338 0.9 1.7 0.00 0.00 0.00 51 1014.4
20260507162001 72 90 0.9 1.7 0.00 0.00 0.00 50 1014.4
20260507161902 72 90 0.9 1.7 0.00 0.00 0.00 51 1014.4
20260507161802 72 68 0.9 1.7 0.00 0.00 0.00 51 1014.5
20260507161702 72 112 0.9 1.7 0.00 0.00 0.00 50 1014.5
20260507161602 72 90 1.7 3.5 0.00 0.00 0.00 51 1014.5
20260507161502 72 292 1.7 7.0 0.00 0.00 0.00 50 1014.5
20260507161402 72 90 0.0 0.0 0.00 0.00 0.00 50 1014.4
20260507161302 72 68 0.9 1.7 0.00 0.00 0.00 48 1014.3
20260507161203 72 90 0.0 1.7 0.00 0.00 0.00 48 1014.3
20260507161102 72 158 0.9 1.7 0.00 0.00 0.00 48 1014.5
20260507161002 72 90 0.9 1.7 0.00 0.00 0.00 48 1014.4
20260507160901 72 45 0.9 1.7 0.00 0.00 0.00 49 1014.5
20260507160801 72 45 1.7 3.5 0.00 0.00 0.00 49 1014.6
20260507160701 72 68 1.7 3.5 0.00 0.00 0.00 49 1014.2
20260507160601 72 225 0.9 1.7 0.00 0.00 0.00 49 1014.5
20260507160502 72 158 0.9 1.7 0.00 0.00 0.00 49 1014.4
20260507160402 72 90 0.9 1.7 0.00 0.00 0.00 50 1014.4
20260507160302 72 90 0.9 1.7 0.00 0.00 0.00 50 1014.4
20260507160201 72 90 1.7 6.1 0.00 0.00 0.00 49 1014.3
20260507160101 72 292 0.9 5.2 0.00 0.00 0.00 50 1014.4
20260507160001 72 68 0.9 1.7 0.00 0.00 0.00 50 1014.4
20260507155901 72 90 0.9 1.7 0.00 0.00 0.00 50 1014.4
20260507155801 72 68 0.9 1.7 0.00 0.00 0.00 50 1014.2
20260507155701 72 90 1.7 1.7 0.00 0.00 0.00 50 1014.4
20260507155601 72 225 0.9 1.7 0.00 0.00 0.00 50 1014.4
20260507155501 72 248 0.9 1.7 0.00 0.00 0.00 50 1014.3
20260507155401 72 202 0.0 1.7 0.00 0.00 0.00 49 1014.3
20260507155301 72 22 1.7 1.7 0.00 0.00 0.00 50 1014.3
20260507155201 72 135 1.7 1.7 0.00 0.00 0.00 50 1014.4
20260507155102 72 68 0.9 1.7 0.00 0.00 0.00 50 1014.4
20260507155001 72 180 0.9 1.7 0.00 0.00 0.00 50 1014.3
20260507154902 72 90 0.9 1.7 0.00 0.00 0.00 50 1014.4
20260507154802 72 135 0.9 1.7 0.00 0.00 0.00 50 1014.2
20260507154702 72 45 1.7 3.5 0.00 0.00 0.00 50 1014.2
20260507154602 72 315 1.7 3.5 0.00 0.00 0.00 50 1014.4
20260507154502 72 90 1.7 1.7 0.00 0.00 0.00 50 1014.3
20260507154402 72 90 1.7 1.7 0.00 0.00 0.00 50 1014.3
20260507154302 73 90 1.7 1.7 0.00 0.00 0.00 50 1014.3
20260507154202 73 68 0.0 1.7 0.00 0.00 0.00 50 1014.2
20260507154102 73 45 0.9 1.7 0.00 0.00 0.00 50 1014.2
20260507154002 73 68 0.9 3.5 0.00 0.00 0.00 51 1014.4
20260507153902 73 22 0.9 1.7 0.00 0.00 0.00 51 1014.3
20260507153801 73 68 0.9 1.7 0.00 0.00 0.00 50 1014.3
20260507153701 73 135 0.0 1.7 0.00 0.00 0.00 50 1014.5
20260507153601 73 90 0.9 1.7 0.00 0.00 0.00 50 1014.3
20260507153501 73 68 0.9 1.7 0.00 0.00 0.00 50 1014.3
20260507153401 73 315 1.7 3.5 0.00 0.00 0.00 50 1014.4
20260507153302 73 90 1.7 1.7 0.00 0.00 0.00 49 1014.3
20260507153201 74 90 1.7 3.5 0.00 0.00 0.00 49 1014.4
20260507153101 74 248 0.0 1.7 0.00 0.00 0.00 49 1014.3
20260507153001 74 112 0.9 1.7 0.00 0.00 0.00 48 1014.4
20260507152901 74 90 0.9 1.7 0.00 0.00 0.00 47 1014.6
20260507152802 74 68 0.9 1.7 0.00 0.00 0.00 46 1014.2
20260507152702 74 292 1.7 3.5 0.00 0.00 0.00 45 1014.2
20260507152602 74 68 0.9 3.5 0.00 0.00 0.00 44 1014.4
20260507152502 74 90 0.9 1.7 0.00 0.00 0.00 44 1014.3
20260507152402 74 68 0.9 1.7 0.00 0.00 0.00 44 1014.5
20260507152305 74 68 1.7 1.7 0.00 0.00 0.00 44 1014.4
20260507152202 74 90 2.6 7.0 0.00 0.00 0.00 44 1014.1
20260507152102 74 270 1.7 3.5 0.00 0.00 0.00 44 1014.3
20260507152002 74 158 0.0 1.7 0.00 0.00 0.00 46 1014.4
20260507151902 74 90 1.7 1.7 0.00 0.00 0.00 46 1014.4
20260507151801 74 292 0.0 1.7 0.00 0.00 0.00 44 1014.4
20260507151701 74 112 0.9 1.7 0.00 0.00 0.00 43 1014.4
20260507151601 74 90 0.0 1.7 0.00 0.00 0.00 43 1014.4
20260507151502 73 0 0.0 0.0 0.00 0.00 0.00 44 1014.3
20260507151401 73 68 0.9 1.7 0.00 0.00 0.00 43 1014.5
20260507151301 73 112 0.0 1.7 0.00 0.00 0.00 44 1014.3
20260507151201 73 225 0.9 1.7 0.00 0.00 0.00 44 1014.3
20260507151101 72 202 0.9 3.5 0.00 0.00 0.00 45 1014.3
20260507151001 72 292 1.7 3.5 0.00 0.00 0.00 44 1014.3
20260507150902 72 90 3.5 7.8 0.00 0.00 0.00 44 1014.1
20260507150802 72 270 4.3 7.0 0.00 0.00 0.00 44 1014.4
20260507150702 72 292 1.7 6.1 0.00 0.00 0.00 45 1014.2
20260507150602 72 248 1.7 3.5 0.00 0.00 0.00 46 1014.5
20260507150502 72 112 0.9 1.7 0.00 0.00 0.00 46 1014.5
20260507150402 72 68 0.9 3.5 0.00 0.00 0.00 45 1014.5
20260507150302 71 315 5.2 7.8 0.00 0.00 0.00 45 1014.3
20260507150202 71 292 5.2 7.8 0.00 0.00 0.00 44 1014.4
20260507150002 72 292 3.5 6.1 0.00 0.00 0.00 45 1014.4
20260507145901 72 22 0.0 1.7 0.00 0.00 0.00 45 1014.5
20260507145801 71 270 4.3 7.0 0.00 0.00 0.00 44 1014.6
20260507145702 72 292 8.7 11.3 0.00 0.00 0.00 43 1014.6
20260507145602 74 270 5.2 7.8 0.00 0.00 0.00 43 1014.5
20260507145501 74 270 5.2 7.8 0.00 0.00 0.00 43 1014.5
20260507145402 74 270 2.6 5.2 0.00 0.00 0.00 43 1014.4
20260507145301 74 68 2.6 6.1 0.00 0.00 0.00 44 1014.5
20260507145202 74 68 1.7 6.1 0.00 0.00 0.00 45 1014.6
20260507145102 74 292 1.7 3.5 0.00 0.00 0.00 45 1014.5
20260507145002 73 225 0.9 1.7 0.00 0.00 0.00 45 1014.3
20260507144902 73 68 1.7 3.5 0.00 0.00 0.00 45 1014.4
20260507144800 73 68 0.9 1.7 0.00 0.00 0.00 46 1014.6
20260507144702 73 202 0.9 1.7 0.00 0.00 0.00 46 1014.5
20260507144602 73 68 2.6 6.1 0.00 0.00 0.00 45 1014.5
20260507144501 73 68 2.6 6.1 0.00 0.00 0.00 45 1014.3
20260507144401 73 292 2.6 7.0 0.00 0.00 0.00 45 1014.8
20260507144301 73 68 1.7 6.1 0.00 0.00 0.00 45 1014.5
20260507144201 73 90 0.9 1.7 0.00 0.00 0.00 46 1014.6
20260507144101 73 90 0.9 1.7 0.00 0.00 0.00 46 1014.8
20260507144001 72 90 0.9 3.5 0.00 0.00 0.00 46 1014.6
20260507143901 72 248 3.5 6.1 0.00 0.00 0.00 45 1014.6
20260507143802 72 270 3.5 5.2 0.00 0.00 0.00 46 1014.6
20260507143701 72 270 3.5 6.1 0.00 0.00 0.00 45 1014.6
20260507143602 72 270 3.5 7.8 0.00 0.00 0.00 46 1014.8
20260507143502 72 270 3.5 7.0 0.00 0.00 0.00 45 1014.5
20260507143401 72 292 3.5 7.0 0.00 0.00 0.00 46 1014.6
20260507143302 72 248 0.9 1.7 0.00 0.00 0.00 42 1014.6
20260507143201 72 248 0.9 1.7 0.00 0.00 0.00 42 1014.7
20260507143102 72 315 1.7 3.5 0.00 0.00 0.00 43 1014.9
20260507143002 72 248 1.7 3.5 0.00 0.00 0.00 43 1014.6
20260507142902 72 248 3.5 5.2 0.00 0.00 0.00 44 1014.8
20260507142801 72 292 4.3 6.1 0.00 0.00 0.00 44 1014.6
20260507142701 72 270 2.6 6.1 0.00 0.00 0.00 44 1014.8
20260507142602 72 202 1.7 3.5 0.00 0.00 0.00 46 1014.7
20260507142501 72 248 1.7 3.5 0.00 0.00 0.00 46 1014.7
20260507142401 71 315 1.7 3.5 0.00 0.00 0.00 46 1014.9
20260507142301 71 248 2.6 3.5 0.00 0.00 0.00 45 1014.6
20260507142201 71 270 7.0 9.6 0.00 0.00 0.00 44 1014.8
20260507142101 72 270 7.0 9.6 0.00 0.00 0.00 44 1014.7
20260507142002 72 270 2.6 7.8 0.00 0.00 0.00 44 1014.6
20260507141901 72 68 1.7 3.5 0.00 0.00 0.00 47 1014.7
20260507141803 72 112 3.5 7.8 0.00 0.00 0.00 46 1014.8
20260507141702 72 270 0.9 1.7 0.00 0.00 0.00 46 1014.7
20260507141602 72 90 1.7 1.7 0.00 0.00 0.00 47 1014.7
20260507141501 72 45 3.5 7.8 0.00 0.00 0.00 46 1014.7
20260507141401 72 270 3.5 6.1 0.00 0.00 0.00 45 1014.8
20260507141302 72 270 5.2 9.6 0.00 0.00 0.00 46 1014.9
20260507141202 72 315 5.2 9.6 0.00 0.00 0.00 45 1014.9
20260507141102 72 338 4.3 7.0 0.00 0.00 0.00 46 1014.7
20260507141001 73 292 7.0 11.3 0.00 0.00 0.00 45 1014.9
20260507140901 73 292 6.1 11.3 0.00 0.00 0.00 44 1014.9
20260507140801 74 225 1.7 3.5 0.00 0.00 0.00 47 1015.1
20260507140701 74 225 1.7 3.5 0.00 0.00 0.00 47 1014.9
20260507140601 74 45 2.6 5.2 0.00 0.00 0.00 47 1015.0
20260507140502 73 248 2.6 3.5 0.00 0.00 0.00 47 1014.8
20260507140401 73 248 1.7 3.5 0.00 0.00 0.00 46 1015.0
20260507140301 73 270 1.7 3.5 0.00 0.00 0.00 45 1014.9
20260507140202 73 270 1.7 3.5 0.00 0.00 0.00 45 1015.0
20260507140001 72 225 1.7 5.2 0.00 0.00 0.00 47 1014.9
20260507135901 72 292 4.3 6.1 0.00 0.00 0.00 46 1015.1
20260507135801 72 270 4.3 7.8 0.00 0.00 0.00 45 1014.8
20260507135701 72 292 1.7 3.5 0.00 0.00 0.00 46 1015.0
20260507135601 72 270 3.5 7.0 0.00 0.00 0.00 45 1015.1
20260507135502 72 292 2.6 7.0 0.00 0.00 0.00 46 1015.0
20260507135401 72 68 2.6 6.1 0.00 0.00 0.00 47 1015.0
20260507135301 72 292 1.7 5.2 0.00 0.00 0.00 48 1015.0
20260507135201 71 292 6.1 7.8 0.00 0.00 0.00 48 1015.0
20260507135101 71 292 6.1 7.8 0.00 0.00 0.00 48 1015.1
20260507135001 71 292 5.2 7.0 0.00 0.00 0.00 49 1015.1
20260507134902 71 292 3.5 6.1 0.00 0.00 0.00 49 1015.0
20260507134801 71 180 9.6 12.2 0.00 0.00 0.00 47 1015.0
20260507134701 71 292 7.0 9.6 0.00 0.00 0.00 47 1015.1
20260507134602 71 270 7.0 9.6 0.00 0.00 0.00 45 1015.1
20260507134501 72 270 7.8 9.6 0.00 0.00 0.00 47 1015.1
20260507134401 72 292 2.6 7.0 0.00 0.00 0.00 47 1015.2
20260507134301 72 68 3.5 7.8 0.00 0.00 0.00 48 1015.1
20260507134202 72 292 1.7 3.5 0.00 0.00 0.00 49 1015.2
20260507134102 71 68 0.9 1.7 0.00 0.00 0.00 49 1015.0
20260507134002 71 270 0.9 1.7 0.00 0.00 0.00 50 1015.0
20260507133902 71 270 3.5 5.2 0.00 0.00 0.00 50 1015.2
20260507133801 70 292 3.5 7.0 0.00 0.00 0.00 48 1015.1
20260507133700 70 248 3.5 7.0 0.00 0.00 0.00 48 1015.1
20260507133601 70 270 5.2 7.8 0.00 0.00 0.00 49 1015.1
20260507133501 70 292 7.8 9.6 0.00 0.00 0.00 47 1015.1
20260507133401 71 292 7.0 11.3 0.00 0.00 0.00 50 1015.2
20260507133301 71 248 7.0 9.6 0.00 0.00 0.00 49 1015.3
20260507133201 71 315 7.0 7.8 0.00 0.00 0.00 50 1015.2
20260507133101 70 248 4.3 7.8 0.00 0.00 0.00 49 1015.2
20260507133001 70 270 3.5 5.2 0.00 0.00 0.00 46 1015.0
20260507132902 70 270 7.0 9.6 0.00 0.00 0.00 45 1015.2
20260507132802 70 270 7.0 9.6 0.00 0.00 0.00 47 1015.2
20260507132702 70 270 9.6 13.9 0.00 0.00 0.00 47 1015.1
20260507132602 71 270 6.1 12.2 0.00 0.00 0.00 47 1015.0
20260507132502 71 292 3.5 7.8 0.00 0.00 0.00 47 1015.2
20260507132402 70 292 4.3 7.8 0.00 0.00 0.00 46 1015.1
20260507132306 71 292 6.1 9.6 0.00 0.00 0.00 47 1015.0
20260507132202 71 270 6.1 9.6 0.00 0.00 0.00 47 1015.0
20260507132102 71 270 2.6 3.5 0.00 0.00 0.00 49 1015.0
20260507132002 71 292 5.2 7.8 0.00 0.00 0.00 46 1015.3
20260507131901 71 292 5.2 7.8 0.00 0.00 0.00 46 1015.1
20260507131801 71 292 5.2 7.8 0.00 0.00 0.00 45 1015.1
20260507131701 71 248 4.3 7.0 0.00 0.00 0.00 45 1015.3
20260507131602 71 270 5.2 7.0 0.00 0.00 0.00 43 1015.3
20260507131502 71 270 7.0 9.6 0.00 0.00 0.00 43 1015.1
20260507131401 72 270 5.2 9.6 0.00 0.00 0.00 43 1014.9
20260507131301 72 292 4.3 7.0 0.00 0.00 0.00 42 1015.2
20260507131201 72 292 7.0 9.6 0.00 0.00 0.00 40 1015.3
20260507131101 72 292 6.1 9.6 0.00 0.00 0.00 42 1015.2
20260507131001 72 292 1.7 7.0 0.00 0.00 0.00 43 1015.3
20260507130902 72 90 1.7 1.7 0.00 0.00 0.00 46 1015.1
20260507130802 71 248 1.7 3.5 0.00 0.00 0.00 46 1015.2
20260507130702 71 68 3.5 7.0 0.00 0.00 0.00 46 1015.1
20260507130602 71 315 4.3 7.0 0.00 0.00 0.00 45 1015.0
20260507130502 70 270 3.5 7.0 0.00 0.00 0.00 43 1015.2
20260507130402 70 270 6.1 7.0 0.00 0.00 0.00 42 1015.3
20260507130302 70 270 6.1 7.0 0.00 0.00 0.00 42 1015.3
20260507130202 71 225 3.5 6.1 0.00 0.00 0.00 46 1015.2
20260507130001 71 248 5.2 7.8 0.00 0.00 0.00 45 1015.0
20260507125902 71 292 6.1 7.8 0.00 0.00 0.00 44 1015.0
20260507125801 72 270 4.3 9.6 0.00 0.00 0.00 44 1015.1
20260507125701 72 292 1.7 3.5 0.00 0.00 0.00 45 1015.3
20260507125601 72 292 2.6 3.5 0.00 0.00 0.00 44 1015.2
20260507125502 72 292 3.5 5.2 0.00 0.00 0.00 45 1015.1
20260507125401 71 292 4.3 7.0 0.00 0.00 0.00 43 1015.1
20260507125302 71 292 3.5 6.1 0.00 0.00 0.00 44 1015.3
20260507125201 71 0 2.6 6.1 0.00 0.00 0.00 48 1015.2
20260507125101 71 90 5.2 9.6 0.00 0.00 0.00 47 1015.1
20260507125002 71 292 3.5 6.1 0.00 0.00 0.00 48 1015.2
20260507124901 71 270 5.2 7.0 0.00 0.01 0.00 49 1015.1
20260507124801 70 270 7.8 13.0 0.00 0.02 0.00 46 1015.1
20260507124702 71 270 6.1 9.6 0.00 0.03 0.00 46 1015.0
20260507124601 71 248 0.9 1.7 0.00 0.03 0.00 50 1015.2
20260507124501 71 45 1.7 3.5 0.00 0.03 0.00 50 1015.4
20260507124401 70 270 3.5 5.2 0.00 0.03 0.00 48 1015.3
20260507124301 70 292 6.1 7.8 0.00 0.04 0.00 48 1015.2
20260507124201 70 292 4.3 6.1 0.00 0.05 0.00 50 1015.2
20260507124101 70 270 6.1 7.0 0.00 0.07 0.00 49 1015.2
20260507124001 70 202 3.5 6.1 0.00 0.08 0.00 49 1015.3
20260507123902 70 248 3.5 6.1 0.00 0.10 0.00 48 1015.3
20260507123802 71 248 3.5 5.2 0.00 0.17 0.00 48 1015.1
20260507123701 71 270 5.2 7.0 0.00 0.17 0.00 48 1015.4
20260507123602 71 292 6.1 7.8 0.00 0.21 0.00 48 1015.0
20260507123502 71 270 3.5 6.1 0.00 0.25 0.00 49 1015.2
20260507123401 72 270 2.6 6.1 0.00 0.33 0.00 46 1015.1
20260507123312 72 90 0.9 1.7 0.00 0.40 0.00 50 1015.2
20260507123202 71 270 1.7 5.2 0.00 0.40 0.00 50 1015.3
20260507123101 71 112 0.0 1.7 0.00 0.41 0.00 50 1015.2
20260507123002 71 68 4.3 7.8 0.00 0.41 0.00 49 1015.3
20260507122901 71 292 6.1 9.6 0.00 0.42 0.00 48 1015.1
20260507122802 71 270 4.3 9.6 0.00 0.43 0.00 51 1015.0
20260507122701 71 270 7.0 9.6 0.00 0.43 0.00 49 1015.4
20260507122601 71 270 4.3 7.0 0.00 0.47 0.00 51 1015.1
20260507122501 71 292 4.3 7.0 0.00 0.47 0.00 51 1015.1
20260507122401 71 270 3.5 7.0 0.00 0.47 0.00 51 1015.1
20260507122306 71 292 4.3 6.1 0.00 0.48 0.00 50 1015.1
20260507122201 71 270 3.5 6.1 0.00 0.48 0.00 51 1015.3
20260507122101 71 292 4.3 7.8 0.00 0.54 0.00 50 1015.1
20260507122001 71 22 1.7 3.5 0.00 0.55 0.00 52 1015.3
20260507121901 70 270 0.9 3.5 0.00 0.56 0.00 54 1015.3
20260507121802 70 292 6.1 9.6 0.00 0.60 0.00 52 1015.2
20260507121702 70 292 5.2 7.0 0.00 0.68 0.00 54 1015.3
20260507121602 70 248 6.1 7.8 0.00 0.74 0.00 55 1015.1
20260507121501 70 248 7.0 7.8 0.00 0.79 0.00 53 1015.3
20260507121402 70 248 5.2 7.8 0.00 0.82 0.00 52 1015.3
20260507121302 71 292 4.3 7.0 0.00 0.87 0.00 51 1015.2
20260507121202 71 292 4.3 7.0 0.00 0.87 0.00 51 1015.1
20260507121102 72 248 3.5 5.2 0.00 0.87 0.00 52 1015.4
20260507121002 72 270 4.3 7.8 0.00 0.88 0.00 50 1015.1
20260507120902 73 292 0.9 1.7 0.00 0.89 0.00 48 1015.2
20260507120801 72 248 1.7 3.5 0.00 0.90 0.00 47 1015.1
20260507120701 72 292 0.9 3.5 0.00 0.90 0.00 48 1015.2
20260507120601 72 45 1.7 3.5 0.00 0.96 0.00 50 1015.1
20260507120501 72 68 0.9 1.7 0.00 0.96 0.00 51 1015.2
20260507120401 72 338 0.9 1.7 0.00 0.96 0.00 50 1015.2
20260507120301 72 338 0.9 1.7 0.00 0.96 0.00 50 1015.3
20260507120201 71 68 1.7 6.1 0.00 0.96 0.00 53 1015.4
20260507120001 71 292 2.6 6.1 0.00 0.96 0.00 52 1015.4
20260507115901 71 45 2.6 5.2 0.00 0.98 0.00 54 1015.4
20260507115801 70 248 1.7 3.5 0.00 0.98 0.00 55 1015.3
20260507115701 69 270 2.6 3.5 0.00 0.99 0.00 54 1015.4
20260507115601 69 292 3.5 5.2 0.00 0.99 0.00 54 1015.2
20260507115501 69 270 3.5 6.1 0.00 0.99 0.00 53 1015.1
20260507115401 69 270 7.0 9.6 0.00 0.99 0.00 52 1015.3
20260507115300 70 248 6.1 9.6 0.00 0.99 0.00 53 1015.4
20260507115201 70 180 3.5 5.2 0.00 0.99 0.00 53 1015.3
20260507115102 69 270 3.5 6.1 0.00 0.99 0.00 52 1015.4
20260507115000 69 270 7.0 11.3 0.00 0.99 0.00 49 1015.4
20260507114902 70 292 4.3 7.8 0.00 0.99 0.00 52 1015.3
20260507114801 70 292 5.2 7.8 0.00 0.99 0.00 51 1015.5
20260507114701 70 292 5.2 7.8 0.00 0.99 0.00 52 1015.5
20260507114602 70 270 7.0 9.6 0.00 0.99 0.00 52 1015.5
20260507114501 71 270 4.3 6.1 0.00 0.99 0.00 52 1015.4
20260507114401 71 292 0.9 1.7 0.00 0.99 0.00 54 1015.4
20260507114301 71 292 2.6 6.1 0.00 0.99 0.00 53 1015.4
20260507114201 70 270 3.5 5.2 0.00 0.99 0.00 57 1015.3
20260507114101 70 270 4.3 6.1 0.00 0.99 0.00 56 1015.1
20260507114001 70 270 5.2 7.8 0.00 0.99 0.00 55 1015.3
20260507113902 70 270 5.2 7.8 0.00 0.99 0.00 55 1015.4
20260507113801 70 248 5.2 7.0 0.00 0.99 0.00 57 1015.4
20260507113702 70 248 4.3 7.0 0.00 0.99 0.00 55 1015.5
20260507113601 70 248 3.5 5.2 0.00 0.99 0.00 56 1015.3
20260507113501 70 270 4.3 7.0 0.00 0.99 0.00 55 1015.5
20260507113401 70 292 2.6 3.5 0.00 0.99 0.00 55 1015.5
20260507113301 69 270 1.7 3.5 0.00 0.99 0.00 52 1015.5
20260507113202 69 315 3.5 5.2 0.00 0.99 0.00 52 1015.4
20260507113102 69 248 3.5 5.2 0.00 0.99 0.00 49 1015.5
20260507113001 69 270 5.2 7.0 0.00 0.99 0.00 48 1015.5
20260507112902 70 270 5.2 7.8 0.00 0.99 0.00 51 1015.5
20260507112801 70 292 5.2 7.8 0.00 0.99 0.00 51 1015.5
20260507112702 71 270 5.2 7.8 0.00 0.99 0.00 52 1015.6
20260507112602 71 270 6.1 9.6 0.00 0.99 0.00 51 1015.4
20260507112502 72 292 4.3 7.8 0.00 0.99 0.00 53 1015.5
20260507112401 72 202 1.7 5.2 0.00 0.99 0.00 52 1015.6
20260507112305 73 270 1.7 3.5 0.00 0.99 0.00 53 1015.2
20260507112202 72 225 3.5 5.2 0.00 0.99 0.00 51 1015.5
20260507112102 73 248 0.9 1.7 0.00 0.99 0.00 54 1015.5
20260507112002 73 225 1.7 3.5 0.00 0.99 0.00 55 1015.5
20260507111901 73 45 0.9 1.7 0.00 0.99 0.00 55 1015.6
20260507111801 73 112 0.9 1.7 0.00 0.99 0.00 55 1015.5
20260507111701 73 68 1.7 1.7 0.00 0.99 0.00 56 1015.6
20260507111602 73 45 0.9 1.7 0.00 0.99 0.00 57 1015.5
20260507111503 72 68 1.7 1.7 0.00 0.99 0.00 57 1015.8
20260507111402 72 315 1.7 1.7 0.00 0.99 0.00 57 1015.8
20260507111301 72 180 3.5 7.8 0.00 0.99 0.00 55 1015.4
20260507111202 72 292 3.5 7.8 0.00 0.99 0.00 55 1015.6
20260507111102 72 90 0.9 1.7 0.00 0.99 0.00 57 1015.5
20260507111001 72 45 0.0 1.7 0.00 0.99 0.00 58 1015.5
20260507110901 72 68 1.7 1.7 0.00 0.99 0.00 58 1015.8
20260507110801 71 68 0.9 1.7 0.00 0.99 0.00 58 1015.6
20260507110700 71 68 1.7 3.5 0.00 0.99 0.00 56 1015.5
20260507110601 71 90 0.9 1.7 0.00 0.99 0.00 57 1015.7
20260507110501 71 292 0.9 1.7 0.00 0.99 0.00 58 1015.8
20260507110401 71 90 0.0 0.0 0.00 0.99 0.00 58 1015.7
20260507110301 71 135 0.0 0.0 0.00 0.99 0.00 59 1015.6
20260507110201 71 270 0.0 0.0 0.00 0.99 0.00 60 1015.7
20260507110001 70 270 0.9 1.7 0.00 0.99 0.00 59 1015.7
20260507105902 70 68 0.0 1.7 0.00 0.99 0.00 59 1015.6
20260507105802 70 68 0.9 1.7 0.00 0.99 0.00 60 1015.7
20260507105701 70 90 0.9 1.7 0.00 0.99 0.00 60 1015.6
20260507105602 70 68 0.0 1.7 0.00 0.99 0.00 60 1015.4
20260507105502 70 90 0.9 1.7 0.00 0.99 0.00 60 1015.5
20260507105401 70 90 1.7 3.5 0.00 0.99 0.00 61 1015.7
20260507105301 70 270 2.6 5.2 0.00 0.99 0.00 61 1015.5
20260507105201 70 292 3.5 5.2 0.00 0.99 0.00 60 1015.5
20260507105101 70 270 1.7 3.5 0.00 0.99 0.00 61 1015.6
20260507105001 70 248 3.5 5.2 0.00 0.99 0.00 59 1015.5
20260507104901 70 225 1.7 3.5 0.00 0.99 0.00 59 1015.8
20260507104800 70 270 2.6 5.2 0.00 0.99 0.00 58 1015.7
20260507104701 70 292 1.7 5.2 0.00 0.99 0.00 59 1015.8
20260507104601 70 270 1.7 1.7 0.00 0.99 0.00 60 1015.8
20260507104501 70 270 1.7 3.5 0.00 0.99 0.00 59 1015.9
20260507104401 70 270 0.0 1.7 0.00 0.99 0.00 59 1015.9
20260507104301 70 225 2.6 3.5 0.00 0.99 0.00 58 1015.6
20260507104201 71 112 0.9 1.7 0.00 0.99 0.00 56 1015.9
20260507104102 71 68 1.7 3.5 0.00 0.99 0.00 56 1015.8
20260507104001 71 68 1.7 3.5 0.00 0.99 0.00 56 1015.8
20260507103902 72 180 0.9 1.7 0.00 0.99 0.00 57 1016.0
20260507103802 72 45 0.9 1.7 0.00 0.99 0.00 57 1015.8
20260507103702 71 90 1.7 3.5 0.00 0.99 0.00 59 1015.9
20260507103602 71 315 1.7 3.5 0.00 0.99 0.00 58 1015.7
20260507103501 71 292 1.7 3.5 0.00 0.99 0.00 59 1015.7
20260507103402 71 90 0.0 1.7 0.00 0.99 0.00 62 1015.7
20260507103302 71 68 1.7 3.5 0.00 0.99 0.00 62 1015.9
20260507103202 71 68 0.9 1.7 0.00 0.99 0.00 63 1015.9
20260507103102 70 68 0.9 3.5 0.00 0.99 0.00 63 1015.9
20260507103002 70 135 0.9 1.7 0.00 0.99 0.00 64 1015.9
20260507102902 69 45 0.0 1.7 0.00 0.99 0.00 64 1015.9
20260507102801 69 90 0.0 1.7 0.00 0.99 0.00 64 1015.9
20260507102701 69 45 0.0 1.7 0.00 0.99 0.00 64 1016.0
20260507102602 69 90 0.9 1.7 0.00 0.99 0.00 64 1016.1
20260507102501 69 68 0.9 1.7 0.00 0.99 0.00 63 1016.0
20260507102401 69 135 1.7 3.5 0.00 0.99 0.00 63 1016.0
20260507102302 69 68 1.7 1.7 0.00 0.99 0.00 63 1015.9
20260507102202 68 135 0.9 1.7 0.00 0.99 0.00 60 1015.9
20260507102101 68 248 3.5 6.1 0.00 0.99 0.00 59 1016.0
20260507102001 68 248 3.5 5.2 0.00 0.99 0.00 60 1016.1
20260507101902 68 225 1.7 3.5 0.00 0.99 0.00 58 1016.1
20260507101803 68 248 1.7 3.5 0.00 0.99 0.00 58 1015.9
20260507101701 68 270 5.2 7.0 0.00 0.99 0.00 57 1016.0
20260507101601 68 270 2.6 7.0 0.00 0.99 0.00 57 1016.0
20260507101502 68 248 1.7 3.5 0.00 0.99 0.00 57 1016.0
20260507101402 68 90 0.0 1.7 0.00 0.99 0.00 61 1015.9
20260507101302 68 315 0.9 1.7 0.00 0.99 0.00 59 1015.9
20260507101203 68 270 1.7 3.5 0.00 0.99 0.00 60 1016.0
20260507101102 67 292 3.5 6.1 0.00 0.99 0.00 59 1016.2
20260507101002 68 338 1.7 3.5 0.00 0.99 0.00 61 1016.1
20260507100901 68 270 2.6 3.5 0.00 0.99 0.00 61 1016.1
20260507100801 68 292 1.7 3.5 0.00 0.99 0.00 63 1016.1
20260507100701 67 225 0.0 1.7 0.00 0.99 0.00 64 1016.1
20260507100602 67 90 0.0 0.0 0.00 0.99 0.00 65 1016.1
20260507100501 67 248 0.0 1.7 0.00 0.99 0.00 65 1016.0
20260507100401 67 292 1.7 3.5 0.00 0.99 0.00 65 1015.9
20260507100301 67 270 3.5 3.5 0.00 0.99 0.00 65 1015.9
20260507100202 67 270 1.7 3.5 0.00 0.99 0.00 66 1016.1
20260507100101 67 248 1.7 1.7 0.00 0.99 0.00 64 1016.1
20260507100001 68 270 1.7 3.5 0.00 0.99 0.00 65 1015.9
20260507095901 68 270 1.7 1.7 0.00 0.99 0.00 63 1015.8
20260507095801 68 270 0.0 0.0 0.00 0.99 0.00 62 1015.9
20260507095701 68 225 0.0 0.0 0.00 0.99 0.00 62 1016.1
20260507095602 68 248 0.0 0.0 0.00 0.99 0.00 62 1016.2
20260507095501 68 248 0.9 1.7 0.00 0.99 0.00 62 1016.1
20260507095401 68 248 0.0 0.0 0.00 0.99 0.00 62 1016.1
20260507095300 68 248 0.0 0.0 0.00 0.99 0.00 63 1015.9
20260507095201 68 68 0.0 1.7 0.00 0.99 0.00 62 1015.9
20260507095102 68 68 0.9 1.7 0.00 0.99 0.00 63 1016.1
20260507095000 68 68 0.9 1.7 0.00 0.99 0.00 63 1015.9
20260507094903 68 158 0.9 1.7 0.00 0.99 0.00 63 1016.2
20260507094802 68 68 0.9 1.7 0.00 0.99 0.00 63 1015.9
20260507094702 68 270 1.7 3.5 0.00 0.99 0.00 62 1015.9
20260507094602 68 292 3.5 3.5 0.00 0.99 0.00 62 1016.0
20260507094501 69 292 2.6 3.5 0.00 0.99 0.00 60 1016.1
20260507094401 70 270 0.9 1.7 0.00 0.99 0.00 61 1015.8
20260507094301 69 68 0.9 3.5 0.00 0.99 0.00 61 1015.8
20260507094201 69 68 0.9 1.7 0.00 0.99 0.00 63 1015.8
20260507094102 69 45 0.9 1.7 0.00 0.99 0.00 63 1016.0
20260507094002 69 68 0.9 1.7 0.00 0.99 0.00 63 1016.0
20260507093901 69 90 0.0 0.0 0.00 0.99 0.00 63 1016.1
20260507093801 68 68 0.0 1.7 0.00 0.99 0.00 64 1015.9
20260507093701 68 68 0.9 1.7 0.00 0.99 0.00 64 1016.0
20260507093600 68 68 0.0 1.7 0.00 0.99 0.00 65 1015.9
20260507093501 68 45 0.9 1.7 0.00 0.99 0.00 65 1015.9
20260507093401 67 68 1.7 1.7 0.00 0.99 0.00 67 1015.8
20260507093302 67 68 1.7 3.5 0.00 0.99 0.00 68 1016.0
20260507093201 67 68 1.7 3.5 0.00 0.99 0.00 67 1016.0
20260507093100 66 292 2.6 3.5 0.00 0.99 0.00 68 1015.8
20260507093002 67 248 1.7 3.5 0.00 0.99 0.00 67 1015.8
20260507092901 67 270 2.6 3.5 0.00 0.99 0.00 66 1015.9
20260507092801 67 248 2.6 3.5 0.00 0.99 0.00 65 1016.1
20260507092702 68 248 1.7 3.5 0.00 0.99 0.00 64 1015.8
20260507092602 69 292 2.6 3.5 0.00 0.99 0.00 63 1015.8
20260507092502 70 292 0.9 1.7 0.00 0.99 0.00 62 1016.0
20260507092402 70 180 0.9 1.7 0.00 0.99 0.00 61 1016.0
20260507092301 70 225 0.0 1.7 0.00 0.99 0.00 61 1015.8
20260507092201 70 248 0.9 1.7 0.00 0.99 0.00 63 1016.0
20260507092102 70 270 0.0 1.7 0.00 0.99 0.00 65 1015.9
20260507092001 70 68 0.0 0.0 0.00 0.99 0.00 65 1015.8
20260507091900 69 68 0.0 1.7 0.00 0.99 0.00 66 1015.7
20260507091801 69 158 0.0 0.0 0.00 0.99 0.00 68 1015.9
20260507091701 69 68 0.0 1.7 0.00 0.99 0.00 68 1016.0
20260507091602 68 45 0.0 1.7 0.00 0.99 0.00 69 1016.0
20260507091501 68 90 0.0 1.7 0.00 0.99 0.00 69 1015.8
20260507091401 67 90 0.0 0.0 0.00 0.99 0.00 70 1015.7
20260507091301 67 68 0.0 0.0 0.00 0.99 0.00 70 1016.1
20260507091201 66 202 0.0 1.7 0.00 0.99 0.00 70 1015.9
20260507091101 66 112 0.0 0.0 0.00 0.99 0.00 69 1016.0
20260507091001 65 202 1.7 3.5 0.00 0.99 0.00 69 1015.6
20260507090902 66 158 0.9 1.7 0.00 0.99 0.00 70 1015.9
20260507090801 65 248 0.9 3.5 0.00 0.99 0.00 70 1016.1
20260507090702 65 292 0.9 1.7 0.00 0.99 0.00 70 1015.9
20260507090602 65 180 1.7 3.5 0.00 0.99 0.00 70 1015.9
20260507090502 65 248 3.5 3.5 0.00 0.99 0.00 69 1015.9
20260507090401 65 248 2.6 3.5 0.00 0.99 0.00 70 1015.7
20260507090302 65 202 0.9 1.7 0.00 0.99 0.00 69 1016.1
20260507090202 65 225 0.0 0.0 0.00 0.99 0.00 68 1015.9
20260507090002 65 270 1.7 3.5 0.00 0.99 0.00 69 1016.0
20260507085902 65 270 3.5 5.2 0.00 0.99 0.00 70 1016.1
20260507085802 65 270 2.6 3.5 0.00 0.99 0.00 69 1016.0
20260507085702 65 292 3.5 5.2 0.00 0.99 0.00 69 1015.7
20260507085601 65 292 3.5 5.2 0.00 0.99 0.00 69 1016.0
20260507085501 65 270 1.7 3.5 0.00 0.99 0.00 69 1015.9
20260507085402 65 292 1.7 5.2 0.00 0.99 0.00 68 1015.9
20260507085306 65 292 3.5 6.1 0.00 0.99 0.00 67 1016.0
20260507085202 66 292 2.6 3.5 0.00 0.99 0.00 67 1016.0
20260507085101 66 270 1.7 3.5 0.00 0.99 0.00 67 1016.1
20260507085001 66 292 3.5 5.2 0.00 0.99 0.00 67 1015.8
20260507084902 66 315 1.7 5.2 0.00 0.99 0.00 68 1015.9
20260507084801 67 292 1.7 3.5 0.00 0.99 0.00 69 1015.9
20260507084702 67 68 0.9 1.7 0.00 0.99 0.00 70 1016.1
20260507084602 66 112 1.7 1.7 0.00 0.99 0.00 70 1015.9
20260507084502 66 68 1.7 3.5 0.00 0.99 0.00 70 1016.1
20260507084402 66 68 1.7 1.7 0.00 0.99 0.00 70 1016.1
20260507084302 66 90 1.7 1.7 0.00 0.99 0.00 69 1016.2
20260507084202 66 225 1.7 3.5 0.00 0.99 0.00 69 1016.0
20260507084102 67 225 1.7 3.5 0.00 0.99 0.00 70 1016.2
20260507084002 66 180 1.7 1.7 0.00 0.99 0.00 70 1016.0
20260507083901 67 248 0.9 1.7 0.00 0.99 0.00 72 1016.1
20260507083802 66 202 0.9 1.7 0.00 0.99 0.00 72 1016.0
20260507083701 65 68 0.9 1.7 0.00 0.99 0.00 73 1016.2
20260507083601 65 45 1.7 1.7 0.00 0.99 0.00 74 1016.1
20260507083501 65 45 1.7 1.7 0.00 0.99 0.00 74 1016.2
20260507083402 64 315 1.7 3.5 0.00 0.99 0.00 73 1016.0
20260507083302 64 292 2.6 3.5 0.00 0.99 0.00 73 1016.3
20260507083202 64 292 2.6 3.5 0.00 0.99 0.00 73 1016.3
20260507083102 64 270 1.7 3.5 0.00 0.99 0.00 73 1016.0
20260507083001 65 292 2.6 3.5 0.00 0.99 0.00 73 1016.2
20260507082901 65 248 0.9 1.7 0.00 0.99 0.00 72 1016.2
20260507082802 64 270 1.7 1.7 0.00 0.99 0.00 72 1015.9
20260507082701 65 248 0.0 1.7 0.00 0.99 0.00 72 1016.3
20260507082601 65 270 0.0 1.7 0.00 0.99 0.00 74 1016.0
20260507082501 65 68 0.0 1.7 0.00 0.99 0.00 75 1016.0
20260507082401 65 68 0.9 1.7 0.00 0.99 0.00 74 1016.3
20260507082301 64 158 0.9 1.7 0.00 0.99 0.00 75 1016.2
20260507082201 64 68 1.7 1.7 0.00 0.99 0.00 75 1016.2
20260507082102 64 68 1.7 1.7 0.00 0.99 0.00 75 1016.1
20260507082001 64 68 1.7 3.5 0.00 0.99 0.00 76 1016.3
20260507081902 64 68 1.7 3.5 0.00 0.99 0.00 76 1016.2
20260507081802 64 90 3.5 3.5 0.00 0.99 0.00 76 1016.1
20260507081702 64 90 0.9 1.7 0.00 0.99 0.00 77 1016.2
20260507081601 64 45 1.7 3.5 0.00 0.99 0.00 77 1016.2
20260507081501 63 112 2.6 3.5 0.00 0.99 0.00 77 1016.2
20260507081401 63 68 2.6 3.5 0.00 0.99 0.00 77 1016.2
20260507081301 63 90 3.5 3.5 0.00 0.99 0.00 77 1016.1
20260507081202 63 90 3.5 3.5 0.00 0.99 0.00 77 1016.0
20260507081102 63 68 2.6 3.5 0.00 0.99 0.00 77 1016.0
20260507081002 63 90 2.6 3.5 0.00 0.99 0.00 77 1016.2
20260507080902 63 112 1.7 3.5 0.00 0.99 0.00 78 1016.1
20260507080801 63 135 1.7 1.7 0.00 0.99 0.00 78 1016.2
20260507080701 63 90 2.6 5.2 0.00 0.99 0.00 78 1016.3
20260507080601 63 68 3.5 3.5 0.00 0.99 0.00 78 1016.2
20260507080501 63 68 3.5 5.2 0.00 0.99 0.00 79 1016.2
20260507080401 63 68 2.6 3.5 0.00 0.99 0.00 79 1016.3
20260507080301 63 45 3.5 5.2 0.00 0.99 0.00 79 1016.0
20260507080201 63 90 1.7 3.5 0.00 0.99 0.00 79 1016.2
20260507080002 63 90 1.7 3.5 0.00 0.99 0.00 80 1016.2
20260507075902 63 90 1.7 3.5 0.00 0.99 0.00 80 1016.1
20260507075802 63 68 1.7 3.5 0.00 0.99 0.00 81 1016.0
20260507075702 63 45 2.6 3.5 0.00 0.99 0.00 81 1016.2
20260507075602 62 90 2.6 3.5 0.00 0.99 0.00 81 1015.9
20260507075502 62 68 1.7 1.7 0.00 0.99 0.00 81 1016.1
20260507075402 62 112 1.7 5.2 0.00 0.99 0.00 81 1016.1
20260507075301 62 68 3.5 6.1 0.00 0.99 0.00 81 1016.0
20260507075202 62 68 4.3 6.1 0.00 0.99 0.00 81 1016.0
20260507075102 62 90 3.5 7.0 0.00 0.99 0.00 82 1016.2
20260507075002 62 135 3.5 5.2 0.00 0.99 0.00 82 1016.1
20260507074902 62 90 3.5 5.2 0.00 0.99 0.00 82 1016.1
20260507074801 62 68 2.6 5.2 0.00 0.99 0.00 82 1016.1
20260507074702 62 112 3.5 3.5 0.00 0.99 0.00 82 1016.3
20260507074602 62 90 1.7 3.5 0.00 0.99 0.00 82 1016.1
20260507074502 62 45 3.5 6.1 0.00 0.99 0.00 82 1016.1
20260507074401 62 68 3.5 5.2 0.00 0.99 0.00 82 1016.1
20260507074302 61 90 1.7 3.5 0.00 0.99 0.00 82 1016.1
20260507074202 61 68 2.6 5.2 0.00 0.99 0.00 82 1016.1
20260507074102 61 68 3.5 6.1 0.00 0.99 0.00 82 1015.9
20260507074001 61 90 3.5 6.1 0.00 0.99 0.00 82 1016.1
20260507073902 61 45 3.5 6.1 0.00 0.99 0.00 83 1016.0
20260507073802 61 45 3.5 6.1 0.00 0.99 0.00 83 1016.1
20260507073702 61 45 1.7 5.2 0.00 0.99 0.00 83 1016.0
20260507073602 61 45 1.7 5.2 0.00 0.99 0.00 83 1016.4
20260507073502 61 90 4.3 7.0 0.00 0.99 0.00 83 1016.1
20260507073402 61 90 4.3 7.0 0.00 0.99 0.00 83 1016.1
20260507073302 61 68 3.5 3.5 0.00 0.99 0.00 83 1015.9
20260507073202 61 68 3.5 6.1 0.00 0.99 0.00 83 1016.0
20260507073101 61 68 2.6 5.2 0.00 0.99 0.00 83 1016.2
20260507073002 61 68 6.1 7.8 0.00 0.99 0.00 83 1016.0
20260507072902 61 112 3.5 5.2 0.00 0.99 0.00 83 1016.0
20260507072802 61 90 3.5 7.0 0.00 0.99 0.00 83 1016.1
20260507072702 61 90 3.5 5.2 0.00 0.99 0.00 83 1016.1
20260507072601 60 90 4.3 6.1 0.00 0.99 0.00 83 1016.2
20260507072502 61 68 3.5 6.1 0.00 0.99 0.00 83 1016.1
20260507072402 61 68 2.6 3.5 0.00 0.99 0.00 83 1015.9
20260507072306 60 90 3.5 6.1 0.00 0.99 0.00 83 1015.9
20260507072202 60 112 3.5 6.1 0.00 0.99 0.00 83 1016.1
20260507072102 60 45 5.2 7.0 0.00 0.99 0.00 83 1015.9
20260507072002 61 68 3.5 6.1 0.00 0.99 0.00 83 1016.0
20260507071902 60 90 3.5 5.2 0.00 0.99 0.00 83 1016.1
20260507071801 61 45 3.5 5.2 0.00 0.99 0.00 83 1015.9
20260507071701 61 45 1.7 5.2 0.00 0.99 0.00 84 1015.8
20260507071602 61 45 2.6 5.2 0.00 0.99 0.00 84 1016.0
20260507071501 60 90 2.6 3.5 0.00 0.99 0.00 84 1015.8
20260507071402 60 90 3.5 6.1 0.00 0.99 0.00 84 1015.8
20260507071302 60 68 3.5 5.2 0.00 0.99 0.00 84 1016.0
20260507071201 60 68 3.5 6.1 0.00 0.99 0.00 84 1015.8
20260507071101 60 68 3.5 7.0 0.00 0.99 0.00 84 1015.9
20260507071001 60 68 3.5 6.1 0.00 0.99 0.00 84 1015.7
20260507070901 60 68 3.5 5.2 0.00 0.99 0.00 84 1015.9
20260507070802 60 45 2.6 3.5 0.00 0.99 0.00 84 1015.8
20260507070702 60 68 3.5 5.2 0.00 0.99 0.00 84 1015.8
20260507070601 60 90 3.5 6.1 0.00 0.99 0.00 84 1015.9
20260507070503 60 45 4.3 6.1 0.00 0.99 0.00 83 1015.8
20260507070401 60 90 3.5 5.2 0.00 0.99 0.00 84 1015.8
20260507070302 60 68 3.5 5.2 0.00 0.99 0.00 84 1015.8
20260507070202 60 45 4.3 7.0 0.00 0.99 0.00 84 1015.7
20260507070001 60 45 2.6 3.5 0.00 0.99 0.00 84 1015.8
20260507065902 60 45 3.5 5.2 0.00 0.99 0.00 84 1015.6
20260507065801 60 45 3.5 3.5 0.00 0.99 0.00 84 1015.5
20260507065701 59 90 2.6 3.5 0.00 0.99 0.00 84 1015.5
20260507065601 59 68 3.5 5.2 0.00 0.99 0.00 84 1015.8
20260507065501 59 22 4.3 6.1 0.00 0.99 0.00 84 1015.7
20260507065401 59 45 3.5 6.1 0.00 0.99 0.00 84 1015.5
20260507065301 59 68 5.2 7.0 0.00 0.99 0.00 84 1015.6
20260507065202 59 45 4.3 7.8 0.00 0.99 0.00 85 1015.8
20260507065102 59 68 4.3 6.1 0.00 0.99 0.00 85 1015.7
20260507065005 59 22 3.5 7.0 0.00 0.99 0.00 85 1015.6
20260507064901 59 68 3.5 7.0 0.00 0.99 0.00 85 1016.0
20260507064801 59 68 3.5 6.1 0.00 0.99 0.00 85 1015.5
20260507064701 59 45 4.3 6.1 0.00 0.99 0.00 86 1015.6
20260507064601 59 90 4.3 7.0 0.00 0.99 0.00 86 1015.8
20260507064500 59 112 3.5 7.0 0.00 0.99 0.00 86 1015.8
20260507064401 59 68 3.5 6.1 0.00 0.99 0.00 86 1015.7
20260507064300 59 22 3.5 5.2 0.00 0.99 0.00 87 1015.6
20260507064201 59 45 3.5 6.1 0.00 0.99 0.00 87 1015.6
20260507064100 59 45 3.5 5.2 0.00 0.99 0.00 87 1015.8
20260507064001 59 68 4.3 6.1 0.00 0.99 0.00 87 1015.8
20260507063901 59 45 3.5 5.2 0.00 0.99 0.00 87 1015.8
20260507063801 58 90 4.3 7.0 0.00 0.99 0.00 87 1015.6
20260507063701 58 68 4.3 6.1 0.00 0.99 0.00 88 1015.8
20260507063601 58 68 3.5 6.1 0.00 0.99 0.00 88 1015.7
20260507063502 58 90 3.5 5.2 0.00 0.99 0.00 88 1015.6
20260507063402 58 68 3.5 6.1 0.00 0.99 0.00 89 1015.7
20260507063302 58 68 3.5 6.1 0.00 0.99 0.00 89 1015.5
20260507063202 58 68 3.5 6.1 0.00 0.99 0.00 89 1015.7
20260507063102 58 68 3.5 5.2 0.00 0.99 0.00 89 1015.5
20260507063001 58 22 3.5 5.2 0.00 0.99 0.00 89 1015.6
20260507062901 58 112 3.5 5.2 0.00 0.99 0.00 89 1015.6
20260507062802 58 68 3.5 6.1 0.00 0.99 0.00 89 1015.5
20260507062702 58 45 3.5 6.1 0.00 0.99 0.00 90 1015.7
20260507062602 58 45 2.6 3.5 0.00 0.99 0.00 90 1015.3
20260507062501 58 68 2.6 6.1 0.00 0.99 0.00 90 1015.6
20260507062401 57 68 5.2 7.8 0.00 0.99 0.00 90 1015.5
20260507062301 57 90 3.5 6.1 0.00 0.99 0.00 90 1015.5
20260507062201 57 45 3.5 7.0 0.00 0.99 0.00 91 1015.6
20260507062101 57 45 3.5 7.0 0.00 0.99 0.00 91 1015.5
20260507062002 57 90 3.5 6.1 0.00 0.99 0.00 91 1015.4
20260507061901 57 68 4.3 7.0 0.00 0.99 0.00 91 1015.5
20260507061802 57 90 3.5 5.2 0.00 0.99 0.00 92 1015.4
20260507061702 57 68 2.6 3.5 0.00 0.99 0.00 92 1015.5
20260507061601 57 45 2.6 5.2 0.00 0.99 0.00 92 1015.4
20260507061502 57 90 1.7 3.5 0.00 0.99 0.00 92 1015.4
20260507061403 57 45 2.6 3.5 0.00 0.99 0.00 92 1015.7
20260507061302 56 68 2.6 3.5 0.00 0.99 0.00 92 1015.6
20260507061202 56 112 3.5 5.2 0.00 0.99 0.00 92 1015.5
20260507061102 56 68 3.5 5.2 0.00 0.99 0.00 93 1015.5
20260507061002 56 68 1.7 3.5 0.00 0.99 0.00 93 1015.2
20260507060902 56 90 2.6 3.5 0.00 0.99 0.00 93 1015.4
20260507060801 56 90 2.6 3.5 0.00 0.99 0.00 93 1015.5
20260507060702 56 90 1.7 3.5 0.00 0.99 0.00 93 1015.4
20260507060602 56 45 2.6 3.5 0.00 0.99 0.00 93 1015.4
20260507060502 56 45 2.6 3.5 0.00 0.99 0.00 93 1015.4
20260507060402 56 90 3.5 5.2 0.00 0.99 0.00 93 1015.3
20260507060302 56 90 2.6 3.5 0.00 0.99 0.00 94 1015.5
20260507060202 56 90 1.7 3.5 0.00 0.99 0.00 94 1015.4
20260507060001 55 90 3.5 3.5 0.00 0.99 0.00 94 1015.6
20260507055901 55 68 1.7 3.5 0.00 0.99 0.00 94 1015.3
20260507055801 55 68 3.5 5.2 0.00 0.99 0.00 94 1015.4
20260507055701 55 90 3.5 5.2 0.00 0.99 0.00 94 1015.2
20260507055601 55 68 3.5 6.1 0.00 0.99 0.00 94 1015.2
20260507055501 55 68 2.6 3.5 0.00 0.99 0.00 94 1015.3
20260507055401 55 45 2.6 3.5 0.00 0.99 0.00 94 1015.4
20260507055301 55 68 3.5 5.2 0.00 0.99 0.00 95 1015.2
20260507055201 55 45 3.5 6.1 0.00 0.99 0.00 95 1015.1
20260507055101 55 90 2.6 3.5 0.00 0.99 0.00 95 1015.3
20260507055001 55 45 3.5 7.0 0.00 0.99 0.00 95 1015.1
20260507054901 55 45 2.6 5.2 0.00 0.99 0.00 95 1015.5
20260507054802 54 90 2.6 3.5 0.00 0.99 0.00 95 1015.3
20260507054702 54 68 2.6 3.5 0.00 0.99 0.00 95 1015.1
20260507054602 54 45 4.3 6.1 0.00 0.99 0.00 95 1015.3
20260507054502 54 68 3.5 5.2 0.00 0.99 0.00 95 1015.2
20260507054402 54 68 3.5 5.2 0.00 0.99 0.00 95 1015.3
20260507054302 54 68 4.3 7.0 0.00 0.99 0.00 95 1015.3
20260507054202 54 68 2.6 3.5 0.00 0.99 0.00 95 1015.2
20260507054102 54 45 3.5 3.5 0.00 0.99 0.00 95 1015.2
20260507054002 54 90 3.5 5.2 0.00 0.99 0.00 95 1015.2
20260507053901 54 90 3.5 5.2 0.00 0.99 0.00 95 1015.2
20260507053801 54 90 1.7 3.5 0.00 0.99 0.00 95 1015.0
20260507053701 54 90 2.6 3.5 0.00 0.99 0.00 95 1015.1
20260507053601 54 112 3.5 5.2 0.00 0.99 0.00 96 1015.0
20260507053501 54 68 3.5 6.1 0.00 0.99 0.00 96 1015.2
20260507053401 54 90 2.6 3.5 0.00 0.99 0.00 96 1015.1
20260507053301 54 68 3.5 5.2 0.00 0.99 0.00 96 1015.3
20260507053201 54 68 2.6 3.5 0.00 0.99 0.00 96 1015.2
20260507053104 54 90 2.6 3.5 0.00 0.99 0.00 96 1015.2
20260507053001 54 90 3.5 5.2 0.00 0.99 0.00 96 1015.0
20260507052902 54 90 3.5 6.1 0.00 0.99 0.00 96 1014.9
20260507052801 54 90 2.6 3.5 0.00 0.99 0.00 96 1015.1
20260507052701 54 68 2.6 3.5 0.00 1.00 0.00 96 1015.0
20260507052601 54 68 3.5 5.2 0.00 1.00 0.00 96 1015.1
20260507052501 54 68 3.5 5.2 0.00 1.01 0.00 96 1015.1
20260507052401 54 68 2.6 3.5 0.00 1.01 0.00 96 1015.2
20260507052301 54 68 2.6 3.5 0.00 1.01 0.00 96 1015.2
20260507052201 54 90 2.6 3.5 0.00 1.01 0.00 96 1015.0
20260507052101 54 90 2.6 3.5 0.00 1.02 0.00 96 1015.0
20260507052001 54 68 2.6 3.5 0.00 1.02 0.00 96 1015.1
20260507051901 54 68 2.6 3.5 0.00 1.02 0.00 96 1015.1
20260507051802 54 68 3.5 6.1 0.00 1.02 0.00 96 1015.1
20260507051702 54 68 3.5 5.2 0.00 1.02 0.00 96 1014.9
20260507051602 53 90 3.5 5.2 0.00 1.02 0.00 96 1014.9
20260507051502 53 90 3.5 5.2 0.00 1.02 0.00 96 1015.1
20260507051402 53 68 3.5 6.1 0.00 1.02 0.00 96 1014.9
20260507051301 53 68 3.5 3.5 0.00 1.02 0.00 96 1015.1
20260507051201 53 90 1.7 3.5 0.00 1.02 0.00 96 1015.1
20260507051102 53 90 3.5 6.1 0.00 1.02 0.00 96 1015.1
20260507051002 53 90 2.6 3.5 0.00 1.02 0.00 96 1015.1
20260507050902 53 90 1.7 1.7 0.00 1.02 0.00 96 1014.9
20260507050801 53 90 1.7 1.7 0.00 1.02 0.00 96 1015.0
20260507050702 53 90 1.7 3.5 0.00 1.02 0.00 96 1015.0
20260507050601 53 45 2.6 5.2 0.00 1.02 0.00 96 1015.1
20260507050501 53 90 1.7 3.5 0.00 1.02 0.00 96 1014.9
20260507050402 53 45 2.6 5.2 0.00 1.02 0.00 96 1015.0
20260507050301 53 68 2.6 3.5 0.00 1.02 0.00 96 1014.9
20260507050201 53 68 0.9 1.7 0.00 1.02 0.00 96 1014.8
20260507050002 53 68 1.7 3.5 0.00 1.02 0.00 96 1014.8
20260507045904 53 68 1.7 3.5 0.00 1.02 0.00 96 1015.0
20260507045806 53 90 3.5 5.2 0.00 1.02 0.00 96 1015.1
20260507045706 53 68 1.7 3.5 0.00 1.02 0.00 96 1015.0
20260507045605 53 45 2.6 3.5 0.00 1.02 0.00 96 1015.0
20260507045501 53 68 1.7 3.5 0.00 1.02 0.00 96 1015.0
20260507045402 53 68 1.7 3.5 0.00 1.02 0.00 96 1014.9
20260507045306 53 68 1.7 3.5 0.00 1.02 0.00 96 1015.1
20260507045202 53 90 3.5 3.5 0.00 1.02 0.00 96 1014.7
20260507045102 53 68 2.6 3.5 0.00 1.02 0.00 96 1014.9
20260507045002 53 90 2.6 5.2 0.00 1.02 0.00 96 1014.7
20260507044902 53 45 3.5 5.2 0.00 1.02 0.00 96 1014.6
20260507044802 53 68 2.6 3.5 0.00 1.02 0.00 96 1014.9
20260507044701 53 90 3.5 5.2 0.00 1.02 0.00 96 1014.7
20260507044602 53 90 3.5 5.2 0.00 1.02 0.00 96 1014.6
20260507044502 53 90 1.7 3.5 0.00 1.02 0.00 96 1014.8
20260507044401 53 90 1.7 3.5 0.00 1.02 0.00 96 1014.8
20260507044302 53 90 2.6 3.5 0.00 1.02 0.00 96 1014.8
20260507044202 53 68 1.7 3.5 0.00 1.02 0.00 96 1014.6
20260507044101 53 68 2.6 3.5 0.00 1.02 0.00 96 1014.7
20260507044002 53 90 1.7 3.5 0.00 1.02 0.00 96 1014.7
20260507043901 53 68 1.7 3.5 0.00 1.02 0.00 96 1014.8
20260507043801 53 68 1.7 3.5 0.00 1.02 0.00 96 1014.8
20260507043702 53 45 1.7 3.5 0.00 1.02 0.00 96 1014.5
20260507043601 53 90 1.7 3.5 0.00 1.02 0.00 96 1014.7
20260507043501 53 68 1.7 3.5 0.00 1.02 0.00 96 1014.7
20260507043401 53 112 2.6 3.5 0.00 1.02 0.00 96 1014.6
20260507043301 53 68 1.7 3.5 0.00 1.02 0.00 96 1014.5
20260507043201 53 68 2.6 3.5 0.00 1.02 0.00 96 1014.7
20260507043101 53 90 2.6 3.5 0.00 1.02 0.00 96 1014.5
20260507043001 53 90 2.6 3.5 0.00 1.02 0.00 96 1014.6
20260507042901 53 68 1.7 3.5 0.00 1.02 0.00 96 1014.6
20260507042802 53 90 1.7 3.5 0.00 1.02 0.00 96 1014.6
20260507042702 53 68 2.6 3.5 0.00 1.02 0.00 96 1014.7
20260507042602 53 68 2.6 5.2 0.00 1.02 0.00 96 1014.8
20260507042502 53 90 3.5 6.1 0.00 1.02 0.00 96 1014.6
20260507042401 53 68 3.5 3.5 0.00 1.02 0.00 96 1014.8
20260507042302 53 68 2.6 3.5 0.00 1.02 0.00 96 1014.7
20260507042201 53 68 3.5 5.2 0.00 1.02 0.00 96 1014.8
20260507042102 53 68 3.5 5.2 0.00 1.02 0.00 96 1014.7
20260507042002 53 68 2.6 3.5 0.00 1.02 0.00 96 1014.6
20260507041902 53 68 2.6 3.5 0.00 1.02 0.00 96 1014.7
20260507041801 53 45 1.7 3.5 0.00 1.02 0.00 95 1014.7
20260507041701 53 45 2.6 3.5 0.00 1.02 0.00 95 1014.9
20260507041601 53 90 3.5 5.2 0.00 1.02 0.00 95 1014.5
20260507041501 53 90 3.5 5.2 0.00 1.02 0.00 95 1014.7
20260507041401 52 90 3.5 6.1 0.00 1.02 0.00 95 1014.5
20260507041301 52 90 3.5 6.1 0.00 1.02 0.00 95 1014.7
20260507041202 52 45 3.5 6.1 0.00 1.02 0.00 95 1014.7
20260507041101 52 90 1.7 3.5 0.00 1.02 0.00 95 1014.6
20260507041001 52 45 1.7 3.5 0.00 1.02 0.00 95 1014.5
20260507040901 52 68 1.7 3.5 0.00 1.02 0.00 95 1014.5
20260507040802 52 68 2.6 5.2 0.00 1.02 0.00 95 1014.5
20260507040702 52 68 2.6 3.5 0.00 1.02 0.00 95 1014.6
20260507040602 52 45 1.7 1.7 0.00 1.02 0.00 95 1014.5
20260507040501 52 45 1.7 1.7 0.00 1.02 0.00 95 1014.7
20260507040401 52 90 1.7 3.5 0.00 1.02 0.00 95 1014.6
20260507040302 52 90 2.6 3.5 0.00 1.02 0.00 95 1014.7
20260507040202 52 68 3.5 5.2 0.00 1.02 0.00 95 1014.6
20260507040002 52 45 2.6 3.5 0.00 1.02 0.00 95 1014.5
20260507035902 53 45 3.5 3.5 0.00 1.02 0.00 95 1014.3
20260507035802 53 45 1.7 3.5 0.00 1.02 0.00 95 1014.8
20260507035702 53 45 1.7 3.5 0.00 1.02 0.00 95 1014.8
20260507035602 53 45 1.7 3.5 0.00 1.02 0.00 95 1014.5
20260507035502 53 68 0.9 1.7 0.00 1.02 0.00 95 1014.5
20260507035402 53 90 1.7 3.5 0.00 1.02 0.00 95 1014.5
20260507035302 53 45 0.0 0.0 0.00 1.02 0.00 94 1014.5
20260507035201 53 45 0.0 0.0 0.00 1.02 0.00 94 1014.8
20260507035101 53 90 0.9 1.7 0.00 1.02 0.00 94 1014.7
20260507035002 53 45 1.7 1.7 0.00 1.02 0.00 94 1014.5
20260507034902 53 68 1.7 1.7 0.00 1.02 0.00 94 1014.5
20260507034801 53 45 1.7 1.7 0.00 1.02 0.00 94 1014.7
20260507034701 53 68 0.9 1.7 0.00 1.02 0.00 94 1014.8
20260507034601 53 68 0.9 1.7 0.00 1.02 0.00 94 1014.5
20260507034501 53 68 1.7 1.7 0.00 1.02 0.00 94 1014.4
20260507034402 53 45 0.9 1.7 0.00 1.02 0.00 94 1014.4
20260507034301 53 68 1.7 3.5 0.00 1.02 0.00 94 1014.5
20260507034202 53 90 1.7 1.7 0.00 1.02 0.00 94 1014.7
20260507034102 53 112 0.9 1.7 0.00 1.02 0.00 94 1014.5
20260507034001 53 68 0.9 1.7 0.00 1.02 0.00 94 1014.4
20260507033902 53 90 0.9 1.7 0.00 1.02 0.00 94 1014.6
20260507033802 53 90 1.7 3.5 0.00 1.02 0.00 94 1014.6
20260507033701 53 68 1.7 1.7 0.00 1.02 0.00 94 1014.8
20260507033603 53 90 1.7 1.7 0.00 1.02 0.00 94 1014.8
20260507033502 53 90 0.9 1.7 0.00 1.02 0.00 94 1014.4
20260507033402 53 68 0.0 1.7 0.00 1.02 0.00 94 1014.6
20260507033302 53 90 0.9 1.7 0.00 1.02 0.00 94 1014.5
20260507033202 53 68 1.7 1.7 0.00 1.02 0.00 94 1014.7
20260507033102 53 68 1.7 1.7 0.00 1.02 0.00 94 1014.5
20260507033002 53 112 0.9 1.7 0.00 1.02 0.00 94 1014.5
20260507032902 53 90 0.9 1.7 0.00 1.02 0.00 94 1014.5
20260507032801 53 90 0.9 1.7 0.00 1.02 0.00 94 1014.7
20260507032702 54 45 0.9 1.7 0.00 1.02 0.00 94 1014.5
20260507032601 54 68 0.9 1.7 0.00 1.02 0.00 94 1014.5
20260507032501 54 68 0.9 1.7 0.00 1.02 0.00 94 1014.3
20260507032402 54 90 0.9 1.7 0.00 1.02 0.00 94 1014.5
20260507032301 54 68 0.9 1.7 0.00 1.02 0.00 94 1014.5
20260507032201 54 112 0.9 1.7 0.00 1.02 0.00 93 1014.4
20260507032101 54 135 0.0 0.0 0.00 1.02 0.00 93 1014.6
20260507032001 54 135 0.0 0.0 0.00 1.02 0.00 93 1014.4
20260507031901 54 68 0.0 0.0 0.00 1.02 0.00 93 1014.4
20260507031801 54 90 0.0 1.7 0.00 1.02 0.00 93 1014.6
20260507031701 54 68 0.9 1.7 0.00 1.02 0.00 93 1014.7
20260507031600 54 68 0.0 0.0 0.00 1.02 0.00 93 1014.4
20260507031501 54 68 0.0 0.0 0.00 1.02 0.00 93 1014.5
20260507031401 54 90 1.7 1.7 0.00 1.02 0.00 93 1014.5
20260507031301 54 68 0.9 1.7 0.00 1.02 0.00 93 1014.5
20260507031201 54 68 0.9 1.7 0.00 1.02 0.00 93 1014.5
20260507031101 54 90 1.7 1.7 0.00 1.02 0.00 93 1014.7
20260507031001 54 45 1.7 1.7 0.00 1.02 0.00 93 1014.4
20260507030901 54 90 1.7 3.5 0.00 1.02 0.00 93 1014.4
20260507030802 54 22 1.7 3.5 0.00 1.02 0.00 93 1014.5
20260507030702 54 68 1.7 3.5 0.00 1.02 0.00 93 1014.6
20260507030602 54 68 1.7 3.5 0.00 1.02 0.00 93 1014.4
20260507030501 54 90 1.7 3.5 0.00 1.02 0.00 93 1014.4
20260507030402 54 90 1.7 1.7 0.00 1.02 0.00 93 1014.6
20260507030302 54 90 1.7 1.7 0.00 1.02 0.00 93 1014.5
20260507030202 54 45 0.9 1.7 0.00 1.02 0.00 93 1014.4
20260507030101 54 45 1.7 1.7 0.00 1.02 0.00 93 1014.4
20260507030002 54 68 1.7 1.7 0.00 1.02 0.00 93 1014.5
20260507025901 54 45 1.7 3.5 0.00 1.02 0.00 93 1014.5
20260507025801 54 68 2.6 3.5 0.00 1.02 0.00 93 1014.6
20260507025701 54 68 1.7 3.5 0.00 1.02 0.00 92 1014.4
20260507025601 54 45 1.7 3.5 0.00 1.02 0.00 92 1014.5
20260507025502 54 68 1.7 1.7 0.00 1.02 0.00 92 1014.3
20260507025401 54 90 1.7 3.5 0.00 1.02 0.00 92 1014.5
20260507025301 54 45 1.7 1.7 0.00 1.02 0.00 92 1014.5
20260507025201 54 45 0.9 1.7 0.00 1.03 0.00 92 1014.6
20260507025101 54 45 0.9 1.7 0.00 1.06 0.00 92 1014.5
20260507025001 54 68 0.9 1.7 0.00 1.07 0.00 92 1014.5
20260507024901 54 68 1.7 3.5 0.00 1.08 0.00 92 1014.6
20260507024802 54 45 0.9 1.7 0.00 1.09 0.00 92 1014.5
20260507024701 54 68 1.7 1.7 0.00 1.12 0.00 92 1014.5
20260507024601 54 68 1.7 1.7 0.00 1.13 0.00 92 1014.5
20260507024502 54 68 1.7 3.5 0.00 1.14 0.00 92 1014.5
20260507024401 54 90 1.7 1.7 0.00 1.14 0.00 92 1014.6
20260507024302 54 90 1.7 1.7 0.00 1.15 0.00 92 1014.7
20260507024201 54 68 1.7 3.5 0.00 1.15 0.00 91 1014.7
20260507024101 54 68 0.9 1.7 0.00 1.16 0.00 91 1014.7
20260507024003 54 68 1.7 1.7 0.00 1.18 0.00 91 1014.8
20260507023902 54 68 1.7 1.7 0.00 1.20 0.00 91 1014.3
20260507023801 54 68 1.7 1.7 0.00 1.20 0.00 91 1014.5
20260507023701 54 68 1.7 3.5 0.00 1.22 0.00 91 1014.6
20260507023602 54 68 2.6 3.5 0.00 1.24 0.00 91 1014.3
20260507023502 54 68 1.7 3.5 0.00 1.24 0.00 91 1014.5
20260507023402 54 68 0.0 1.7 0.00 1.26 0.00 91 1014.4
20260507023301 54 90 1.7 1.7 0.00 1.29 0.00 91 1014.5
20260507023201 54 90 0.9 1.7 0.00 1.31 0.00 90 1014.5
20260507023102 54 90 0.9 1.7 0.00 1.32 0.00 90 1014.6
20260507023002 55 90 0.9 1.7 0.00 1.33 0.00 90 1014.5
20260507022902 55 68 0.0 1.7 0.00 1.33 0.00 90 1014.3
20260507022801 55 68 0.0 0.0 0.00 1.34 0.00 90 1014.3
20260507022702 55 68 0.0 0.0 0.00 1.35 0.00 90 1014.5
20260507022601 55 68 0.0 0.0 0.00 1.40 0.00 90 1014.4
20260507022502 55 68 0.0 0.0 0.00 1.40 0.00 90 1014.5
20260507022400 55 68 0.9 1.7 0.00 1.44 0.00 90 1014.4
20260507022302 55 68 0.9 1.7 0.00 1.45 0.00 90 1014.4
20260507022200 55 68 0.9 1.7 0.00 1.47 0.00 90 1014.4
20260507022100 55 68 0.9 1.7 0.00 1.53 0.00 90 1014.3
20260507022001 55 90 1.7 3.5 0.00 1.53 0.00 90 1014.6
20260507021901 55 68 1.7 1.7 0.00 1.55 0.00 90 1014.6
20260507021802 55 90 0.9 1.7 0.00 1.55 0.00 90 1014.6
20260507021702 55 45 0.9 1.7 0.00 1.58 0.00 90 1014.4
20260507021602 55 68 0.9 1.7 0.00 1.58 0.00 90 1014.4
20260507021502 55 45 0.9 1.7 0.00 1.59 0.00 90 1014.5
20260507021402 56 68 0.9 1.7 0.00 1.60 0.00 90 1014.4
20260507021302 56 68 0.9 1.7 0.00 1.66 0.00 90 1014.4
20260507021201 55 68 0.9 1.7 0.00 1.67 0.00 90 1014.3
20260507021103 55 45 0.9 1.7 0.00 1.68 0.00 90 1014.3
20260507021002 55 45 0.9 1.7 0.00 1.71 0.00 90 1014.6
20260507020902 55 45 0.9 1.7 0.00 1.73 0.00 90 1014.5
20260507020802 55 45 0.9 1.7 0.00 1.74 0.00 90 1014.5
20260507020701 56 45 0.9 1.7 0.00 1.75 0.00 90 1014.4
20260507020601 55 45 1.7 1.7 0.00 1.75 0.00 90 1014.5
20260507020501 55 68 1.7 1.7 0.00 1.78 0.00 90 1014.5
20260507020401 55 45 1.7 1.7 0.00 1.79 0.00 90 1014.6
20260507020301 55 68 1.7 1.7 0.00 1.79 0.00 90 1014.6
20260507020201 55 45 1.7 1.7 0.00 1.79 0.00 90 1014.5
20260507020002 55 45 1.7 3.5 0.00 1.81 0.00 90 1014.6
20260507015901 55 45 0.9 1.7 0.00 1.81 0.00 90 1014.5
20260507015801 55 68 1.7 3.5 0.00 1.86 0.00 90 1014.5
20260507015701 55 45 1.7 3.5 0.00 1.86 0.00 90 1014.4
20260507015601 55 45 1.7 1.7 0.00 1.91 0.00 90 1014.6
20260507015501 55 45 1.7 1.7 0.00 1.93 0.00 90 1014.6
20260507015401 55 45 1.7 3.5 0.00 1.94 0.00 90 1014.5
20260507015301 56 45 1.7 1.7 0.00 1.97 0.00 90 1014.6
20260507015201 56 45 0.9 1.7 0.00 1.98 0.00 90 1014.5
20260507015101 56 45 1.7 1.7 0.00 1.98 0.00 90 1014.5
20260507015001 56 45 1.7 3.5 0.00 2.00 0.00 90 1014.4
20260507014902 56 45 1.7 1.7 0.00 2.00 0.00 90 1014.5
20260507014802 56 68 1.7 1.7 0.00 2.01 0.00 90 1014.5
20260507014702 56 45 0.9 1.7 0.00 2.01 0.00 90 1014.5
20260507014603 56 45 1.7 3.5 0.00 2.01 0.00 91 1014.4
20260507014502 56 45 1.7 1.7 0.00 2.01 0.00 91 1014.4
20260507014401 56 45 2.6 3.5 0.00 2.01 0.00 91 1014.6
20260507014301 56 45 1.7 3.5 0.00 2.01 0.00 91 1014.5
20260507014201 56 45 2.6 3.5 0.00 2.01 0.00 91 1014.4
20260507014102 56 22 3.5 5.2 0.00 2.01 0.00 91 1014.6
20260507014002 56 22 3.5 5.2 0.00 2.01 0.00 91 1014.5
20260507013901 56 45 2.6 3.5 0.00 2.01 0.00 91 1014.4
20260507013801 56 45 3.5 3.5 0.00 2.01 0.00 91 1014.4
20260507013701 56 45 2.6 3.5 0.00 2.01 0.00 91 1014.6
20260507013601 56 45 3.5 3.5 0.00 2.01 0.00 91 1014.5
20260507013502 56 45 1.7 3.5 0.00 2.01 0.00 91 1014.6
20260507013402 56 68 1.7 1.7 0.00 2.01 0.00 91 1014.6
20260507013301 56 68 1.7 3.5 0.00 2.01 0.00 91 1014.4
20260507013202 56 45 2.6 3.5 0.00 2.01 0.00 92 1014.5
20260507013102 56 22 1.7 3.5 0.00 2.01 0.00 92 1014.6
20260507013001 56 68 1.7 1.7 0.00 2.01 0.00 92 1014.3
20260507012901 56 45 1.7 3.5 0.00 2.01 0.00 92 1014.4
20260507012802 56 45 1.7 1.7 0.00 2.01 0.00 92 1014.5
20260507012702 56 22 1.7 3.5 0.00 2.01 0.00 92 1014.4
20260507012602 55 68 3.5 5.2 0.00 2.01 0.00 92 1014.3
20260507012502 55 45 2.6 5.2 0.00 2.01 0.00 92 1014.5
20260507012401 55 45 2.6 3.5 0.00 2.01 0.00 92 1014.5
20260507012305 55 45 2.6 3.5 0.00 2.01 0.00 92 1014.5
20260507012202 55 45 1.7 3.5 0.00 2.01 0.00 92 1014.4
20260507012102 55 45 0.9 1.7 0.00 2.01 0.00 92 1014.6
20260507012002 55 45 0.9 1.7 0.00 2.01 0.00 92 1014.4
20260507011902 55 45 1.7 1.7 0.00 2.01 0.00 92 1014.5
20260507011802 55 45 1.7 3.5 0.00 2.01 0.00 92 1014.4
20260507011701 55 68 1.7 3.5 0.00 2.01 0.00 92 1014.6
20260507011601 55 45 3.5 5.2 0.00 2.03 0.00 92 1014.5
20260507011501 55 45 2.6 5.2 0.00 2.03 0.00 92 1014.3
20260507011401 55 68 2.6 3.5 0.00 2.03 0.00 92 1014.4
20260507011301 55 45 1.7 3.5 0.00 2.04 0.00 92 1014.6
20260507011201 55 45 1.7 3.5 0.00 2.04 0.00 93 1014.5
20260507011102 55 45 1.7 1.7 0.00 2.04 0.00 93 1014.4
20260507011002 55 68 2.6 3.5 0.00 2.04 0.00 93 1014.3
20260507010901 55 22 1.7 3.5 0.00 2.05 0.00 93 1014.5
20260507010801 55 45 2.6 3.5 0.00 2.05 0.00 93 1014.4
20260507010701 55 45 2.6 3.5 0.00 2.05 0.00 93 1014.5
20260507010601 55 22 1.7 3.5 0.00 2.05 0.00 93 1014.5
20260507010501 55 45 1.7 3.5 0.00 2.05 0.00 93 1014.4
20260507010401 55 45 1.7 3.5 0.00 2.06 0.00 93 1014.6
20260507010301 55 45 1.7 1.7 0.00 2.06 0.00 93 1014.3
20260507010202 55 45 1.7 3.5 0.00 2.06 0.00 93 1014.5
20260507010101 55 45 1.7 3.5 0.00 2.06 0.00 93 1014.4
20260507010001 55 45 2.6 3.5 0.00 2.06 0.00 93 1014.6
20260507005901 55 22 0.9 3.5 0.00 2.06 0.00 93 1014.4
20260507005802 55 68 1.7 3.5 0.00 2.06 0.00 93 1014.6
20260507005702 55 45 1.7 3.5 0.00 2.06 0.00 93 1014.6
20260507005602 55 45 0.9 1.7 0.00 2.06 0.00 93 1014.5
20260507005502 55 45 1.7 3.5 0.00 2.06 0.00 93 1014.6
20260507005402 55 45 1.7 3.5 0.00 2.06 0.00 93 1014.6
20260507005305 55 68 1.7 3.5 0.00 2.07 0.00 92 1014.6
20260507005202 55 68 1.7 3.5 0.00 2.07 0.00 92 1014.5
20260507005101 55 68 1.7 3.5 0.00 2.07 0.00 92 1014.5
20260507005002 56 45 3.5 5.2 0.00 2.07 0.00 92 1014.7
20260507004902 55 45 2.6 5.2 0.00 2.12 0.00 92 1014.6
20260507004802 55 45 4.3 6.1 0.00 2.12 0.00 92 1014.4
20260507004702 56 45 3.5 3.5 0.00 2.13 0.00 92 1014.4
20260507004602 56 68 2.6 3.5 0.00 2.13 0.00 92 1014.7
20260507004501 56 45 2.6 5.2 0.00 2.16 0.00 92 1014.7
20260507004401 56 45 2.6 3.5 0.00 2.16 0.00 92 1014.5
20260507004302 56 45 3.5 5.2 0.00 2.16 0.00 92 1014.6
20260507004201 56 45 3.5 3.5 0.00 2.16 0.00 92 1014.5
20260507004101 56 45 2.6 3.5 0.00 2.16 0.00 92 1014.2
20260507004001 56 45 3.5 5.2 0.00 2.16 0.00 92 1014.4
20260507003901 56 45 3.5 5.2 0.00 2.17 0.00 92 1014.7
20260507003801 56 68 2.6 3.5 0.00 2.17 0.00 92 1014.7
20260507003701 56 45 3.5 5.2 0.00 2.17 0.00 92 1014.6
20260507003601 56 45 2.6 3.5 0.00 2.17 0.00 92 1014.7
20260507003501 56 45 2.6 3.5 0.00 2.17 0.00 92 1014.7
20260507003401 56 45 1.7 3.5 0.00 2.17 0.00 92 1014.6
20260507003301 56 45 2.6 3.5 0.00 2.17 0.00 92 1014.5
20260507003201 56 22 2.6 3.5 0.00 2.17 0.00 92 1014.6
20260507003101 56 68 2.6 5.2 0.00 2.17 0.00 92 1014.6
20260507003000 56 45 2.6 5.2 0.00 2.17 0.00 92 1014.7
20260507002901 56 45 1.7 3.5 0.00 2.17 0.00 92 1014.5
20260507002801 56 68 1.7 3.5 0.00 2.17 0.00 92 1014.5
20260507002702 56 45 1.7 3.5 0.00 2.17 0.00 92 1014.6
20260507002601 56 68 1.7 3.5 0.00 2.17 0.00 92 1014.6
20260507002501 56 45 2.6 3.5 0.00 2.17 0.00 92 1014.7
20260507002403 56 45 1.7 3.5 0.00 2.17 0.00 92 1014.5
20260507002305 56 45 3.5 3.5 0.00 2.17 0.00 92 1014.5
20260507002202 56 45 3.5 3.5 0.00 2.17 0.00 92 1014.7
20260507002101 56 45 3.5 5.2 0.00 2.17 0.00 92 1014.5
20260507002002 56 45 2.6 3.5 0.00 2.17 0.00 92 1014.5
20260507001902 56 45 1.7 3.5 0.00 2.17 0.00 92 1014.4
20260507001801 56 45 2.6 3.5 0.00 2.17 0.00 92 1014.7
20260507001701 56 68 1.7 3.5 0.00 2.17 0.00 92 1014.6
20260507001401 56 68 1.7 3.5 0.00 2.17 0.00 92 1014.5
20260507001301 56 68 1.7 1.7 0.00 2.17 0.00 92 1014.4
20260507001201 56 68 1.7 3.5 0.00 2.17 0.00 92 1014.6
20260507001101 56 45 1.7 3.5 0.00 2.17 0.00 92 1014.5
20260507001002 56 45 1.7 3.5 0.00 2.17 0.00 92 1014.5
20260507000901 56 68 1.7 3.5 0.00 2.17 0.00 92 1014.5
20260507000802 56 45 1.7 1.7 0.00 2.17 0.00 92 1014.6
20260507000702 56 45 1.7 1.7 0.00 2.17 0.00 92 1014.3
20260507000602 56 68 1.7 1.7 0.00 2.17 0.00 92 1014.4
20260507000501 56 68 1.7 1.7 0.00 2.17 0.00 92 1014.4
20260507000401 56 68 1.7 1.7 0.00 2.17 0.00 92 1014.3
20260507000302 56 68 1.7 1.7 0.00 2.17 0.00 92 1014.5
20260507000204 56 68 1.7 1.7 0.00 2.17 0.00 92 1014.5
20260507000002 56 68 1.7 1.7 0.00 2.17 0.00 92 1014.7
20260506235902 56 45 1.7 3.5 0.00 2.17 0.00 93 1014.7
20260506235801 56 45 2.6 3.5 0.00 2.17 0.00 93 1014.7
20260506235702 56 45 2.6 3.5 0.00 2.17 0.00 93 1014.5
20260506235601 56 45 2.6 3.5 0.00 2.17 0.00 93 1014.6
20260506235501 56 45 1.7 3.5 0.00 2.17 0.00 93 1014.5
20260506235401 56 45 1.7 1.7 0.00 2.17 0.00 93 1014.8
20260506235301 56 45 1.7 3.5 0.00 2.17 0.00 93 1014.7
20260506235201 56 68 1.7 3.5 0.00 2.17 0.00 93 1014.7
20260506235101 56 45 1.7 1.7 0.00 2.17 0.00 93 1014.6
20260506235001 56 45 1.7 1.7 0.00 2.17 0.00 93 1014.5
20260506234901 56 68 0.9 1.7 0.00 2.17 0.00 93 1014.5
20260506234801 56 68 0.9 1.7 0.00 2.17 0.00 93 1014.7
20260506234701 56 90 0.0 0.0 0.00 2.17 0.00 93 1014.6
20260506234601 56 68 0.0 0.0 0.00 2.17 0.00 93 1014.6
20260506234501 56 68 0.0 0.0 0.00 2.17 0.00 93 1014.7
20260506234401 56 68 0.0 0.0 0.00 2.17 0.00 92 1014.9
20260506234301 56 68 0.0 0.0 0.00 2.17 0.00 93 1014.5
20260506234201 56 68 1.7 1.7 0.00 2.17 0.00 92 1014.7
20260506234101 56 45 0.9 1.7 0.00 2.17 0.00 92 1014.6
20260506234001 56 45 0.9 1.7 0.00 2.17 0.00 92 1014.8
20260506233901 56 45 0.9 1.7 0.00 2.17 0.00 92 1014.5
20260506233802 56 45 0.9 1.7 0.00 2.17 0.00 92 1014.6
20260506233702 56 45 0.9 1.7 0.00 2.17 0.00 92 1014.6
20260506233602 56 45 1.7 3.5 0.00 2.17 0.00 92 1014.5
20260506233501 56 45 1.7 1.7 0.00 2.17 0.00 92 1014.6
20260506233401 56 45 1.7 1.7 0.00 2.17 0.00 92 1014.7
20260506233302 56 45 1.7 3.5 0.00 2.17 0.00 92 1014.5
20260506233202 56 45 0.9 3.5 0.00 2.17 0.00 92 1014.7
20260506233101 56 45 1.7 1.7 0.00 2.17 0.00 92 1014.7
20260506233001 56 68 1.7 1.7 0.00 2.17 0.00 92 1014.5
20260506232902 56 45 1.7 3.5 0.00 2.17 0.00 92 1014.6
20260506232801 56 45 1.7 3.5 0.00 2.17 0.00 92 1014.7
20260506232701 56 45 1.7 3.5 0.00 2.17 0.00 92 1014.6
20260506232602 56 45 2.6 3.5 0.00 2.17 0.00 92 1014.7
20260506232502 56 45 2.6 3.5 0.00 2.17 0.00 92 1014.8
20260506232401 56 45 1.7 3.5 0.00 2.17 0.00 92 1014.8
20260506232301 56 45 1.7 3.5 0.00 2.18 0.00 92 1014.9
20260506232201 56 22 2.6 3.5 0.00 2.18 0.00 92 1014.8
20260506232102 56 22 2.6 3.5 0.00 2.19 0.00 92 1014.4
20260506232002 56 45 2.6 3.5 0.00 2.19 0.00 92 1014.5
20260506231901 56 45 1.7 3.5 0.00 2.20 0.00 92 1014.7
20260506231802 56 45 2.6 3.5 0.00 2.20 0.00 92 1014.8
20260506231702 56 45 1.7 3.5 0.00 2.23 0.00 92 1014.9
20260506231602 56 45 1.7 3.5 0.00 2.24 0.00 92 1014.7
20260506231502 56 45 1.7 3.5 0.00 2.24 0.00 92 1014.8
20260506231402 56 45 1.7 5.2 0.00 2.25 0.00 92 1014.9
20260506231302 56 68 2.6 5.2 0.00 2.26 0.00 92 1014.6
20260506231202 56 45 3.5 6.1 0.00 2.29 0.00 92 1014.4
20260506231102 56 68 2.6 3.5 0.00 2.31 0.00 92 1014.7
20260506231002 56 45 1.7 3.5 0.00 2.35 0.00 92 1015.0
20260506230901 56 45 2.6 5.2 0.00 2.44 0.00 92 1014.8
20260506230802 56 45 3.5 5.2 0.00 2.44 0.00 92 1014.7
20260506230701 56 90 3.5 5.2 0.00 2.49 0.00 92 1014.7
20260506230602 56 68 3.5 3.5 0.00 2.52 0.00 92 1015.1
20260506230502 56 68 2.6 3.5 0.00 2.57 0.00 92 1014.8
20260506230402 56 68 3.5 3.5 0.00 2.59 0.00 92 1014.7
20260506230302 56 68 2.6 3.5 0.00 2.64 0.00 91 1014.7
20260506230202 56 90 1.7 1.7 0.00 2.69 0.00 91 1014.8
20260506230002 56 68 1.7 1.7 0.00 2.97 0.00 91 1014.7
20260506225902 56 68 1.7 3.5 0.00 2.97 0.00 91 1014.9
20260506225801 56 68 1.7 1.7 0.00 3.03 0.00 91 1014.8
20260506225701 56 68 1.7 1.7 0.00 3.10 0.00 91 1014.7
20260506225601 56 68 1.7 1.7 0.00 3.15 0.00 91 1014.9
20260506225500 56 68 1.7 3.5 0.00 3.18 0.00 91 1014.7
20260506225401 56 68 1.7 1.7 0.00 3.23 0.00 91 1014.8
20260506225301 56 45 1.7 1.7 0.00 3.31 0.00 91 1014.7
20260506225201 56 45 1.7 1.7 0.00 3.34 0.00 91 1014.5
20260506225101 56 45 0.9 1.7 0.00 3.36 0.00 91 1014.7
20260506225002 56 68 1.7 3.5 0.00 3.36 0.00 91 1014.6
20260506224900 56 45 1.7 1.7 0.00 3.38 0.00 91 1014.7
20260506224801 56 45 1.7 3.5 0.00 3.41 0.00 91 1014.7
20260506224702 57 45 0.9 1.7 0.00 3.41 0.00 91 1014.5
20260506224602 57 45 2.6 3.5 0.00 3.42 0.00 91 1014.6
20260506224502 57 68 2.6 3.5 0.00 3.49 0.00 91 1014.7
20260506224401 57 45 1.7 3.5 0.00 3.50 0.00 91 1014.7
20260506224301 57 68 1.7 1.7 0.00 3.54 0.00 91 1014.6
20260506224202 57 45 3.5 3.5 0.00 3.54 0.00 91 1014.8
20260506224102 57 45 2.6 3.5 0.00 3.56 0.00 91 1014.6
20260506224002 57 45 3.5 5.2 0.00 3.56 0.00 91 1014.7
20260506223902 57 45 3.5 5.2 0.00 3.57 0.00 91 1014.6
20260506223802 57 68 2.6 3.5 0.00 3.57 0.00 90 1014.7
20260506223701 57 68 2.6 3.5 0.00 3.59 0.00 90 1014.7
20260506223601 57 90 3.5 5.2 0.00 3.61 0.00 90 1014.7
20260506223501 57 45 2.6 5.2 0.00 3.61 0.00 90 1014.6
20260506223401 57 68 3.5 3.5 0.00 3.66 0.00 90 1014.7
20260506223301 57 45 3.5 5.2 0.00 3.66 0.00 90 1014.5
20260506223201 57 68 3.5 5.2 0.00 3.67 0.00 90 1014.8
20260506223101 57 45 2.6 5.2 0.00 3.67 0.00 90 1014.5
20260506223002 57 68 3.5 5.2 0.00 3.68 0.00 90 1014.8
20260506222902 57 90 3.5 5.2 0.00 3.68 0.00 90 1014.8
20260506222801 58 45 3.5 5.2 0.00 3.68 0.00 90 1014.7
20260506222702 58 90 1.7 3.5 0.00 3.69 0.00 90 1014.7
20260506222602 58 68 1.7 3.5 0.00 3.69 0.00 90 1014.7
20260506222502 58 90 1.7 1.7 0.00 3.70 0.00 90 1014.6
20260506222402 58 45 1.7 1.7 0.00 3.72 0.00 90 1014.7
20260506222305 57 45 1.7 1.7 0.00 3.72 0.00 90 1014.6
20260506222202 57 45 1.7 1.7 0.00 3.72 0.00 90 1014.8
20260506222102 57 45 1.7 3.5 0.00 3.73 0.00 90 1014.7
20260506222002 57 45 1.7 3.5 0.00 3.73 0.00 90 1014.7
20260506221902 57 45 0.9 1.7 0.00 3.73 0.00 90 1014.4
20260506221801 57 45 2.6 3.5 0.00 3.74 0.00 90 1014.7
20260506221701 57 45 2.6 3.5 0.00 3.74 0.00 90 1014.7
20260506221601 57 68 3.5 3.5 0.00 3.75 0.00 90 1014.8
20260506221502 58 45 1.7 3.5 0.00 3.75 0.00 90 1014.6
20260506221401 58 45 0.9 1.7 0.00 3.75 0.00 90 1014.7
20260506221301 58 68 1.7 3.5 0.00 3.75 0.00 90 1014.7
20260506221201 58 68 0.9 1.7 0.00 3.75 0.00 90 1014.6
20260506221102 58 90 1.7 3.5 0.00 3.75 0.00 90 1014.7
20260506221002 58 68 1.7 3.5 0.00 3.75 0.00 90 1014.5
20260506220901 58 45 2.6 3.5 0.00 3.75 0.00 90 1014.7
20260506220801 58 68 1.7 3.5 0.00 3.75 0.00 90 1014.7
20260506220701 58 68 1.7 3.5 0.00 3.75 0.00 90 1014.5
20260506220600 58 68 1.7 1.7 0.00 3.75 0.00 90 1014.7
20260506220502 58 68 1.7 3.5 0.00 3.75 0.00 90 1014.5
20260506220400 58 68 1.7 3.5 0.00 3.75 0.00 90 1014.6
20260506220301 58 68 1.7 3.5 0.00 3.75 0.00 90 1014.7
20260506220201 58 112 1.7 1.7 0.00 3.75 0.00 90 1014.5
20260506220101 58 68 1.7 1.7 0.00 3.75 3.75 90 1014.6
20260506220001 58 68 2.6 3.5 0.00 3.75 3.75 90 1014.4
20260506215901 58 68 2.6 3.5 0.00 3.75 3.75 90 1014.6
20260506215802 58 90 1.7 3.5 0.00 3.75 3.75 90 1014.5
20260506215702 58 45 2.6 3.5 0.00 3.75 3.75 90 1014.4
20260506215602 58 45 2.6 3.5 0.00 3.75 3.75 90 1014.7
20260506215502 58 45 1.7 3.5 0.00 3.75 3.75 90 1014.6
20260506215402 58 45 3.5 3.5 0.00 3.75 3.75 90 1014.5
20260506215305 58 68 2.6 3.5 0.00 3.75 3.75 90 1014.5
20260506215202 58 45 2.6 3.5 0.00 3.75 3.75 90 1014.5
20260506215102 58 45 1.7 3.5 0.00 3.75 3.75 91 1014.4
20260506215002 58 22 1.7 3.5 0.00 3.75 3.75 91 1014.4
20260506214902 58 68 0.0 1.7 0.00 3.75 3.75 91 1014.4
20260506214801 58 68 0.0 1.7 0.00 3.75 3.75 91 1014.4
20260506214701 58 90 0.9 1.7 0.00 3.75 3.75 91 1014.5
20260506214601 58 90 0.9 1.7 0.00 3.75 3.75 91 1014.7
20260506214501 58 90 0.0 1.7 0.00 3.75 3.75 91 1014.5
20260506214401 58 90 0.0 1.7 0.00 3.75 3.75 91 1014.5
20260506214301 58 68 0.0 1.7 0.00 3.75 3.75 91 1014.5
20260506214201 58 90 1.7 1.7 0.00 3.75 3.75 90 1014.6
20260506214102 58 90 1.7 3.5 0.00 3.75 3.75 91 1014.3
20260506214001 58 68 1.7 3.5 0.00 3.75 3.75 90 1014.3
20260506213902 58 90 1.7 3.5 0.00 3.75 3.75 91 1014.5
20260506213801 58 68 1.7 3.5 0.00 3.75 3.75 91 1014.6
20260506213701 58 68 1.7 3.5 0.00 3.75 3.75 91 1014.6
20260506213601 58 68 1.7 3.5 0.00 3.75 3.75 91 1014.5
20260506213501 58 112 1.7 1.7 0.00 3.75 3.75 91 1014.7
20260506213401 58 68 3.5 3.5 0.00 3.75 3.75 91 1014.7
20260506213301 59 45 1.7 3.5 0.00 3.75 3.75 91 1014.4
20260506213201 58 68 1.7 3.5 0.00 3.75 3.75 91 1014.4
20260506213101 58 45 1.7 1.7 0.00 3.75 3.75 91 1014.5
20260506213001 58 45 1.7 1.7 0.00 3.75 3.75 91 1014.5
20260506212901 58 45 1.7 3.5 0.00 3.75 3.75 91 1014.3
20260506212802 58 45 0.0 1.7 0.00 3.75 3.75 91 1014.6
20260506212701 58 45 0.9 1.7 0.00 3.75 3.75 91 1014.5
20260506212602 58 90 0.9 1.7 0.00 3.75 3.75 91 1014.4
20260506212501 58 90 0.0 1.7 0.00 3.75 3.75 91 1014.6
20260506212401 58 90 0.9 1.7 0.00 3.75 3.75 91 1014.5
20260506212306 58 68 1.7 3.5 0.00 3.75 3.75 91 1014.4
20260506212202 58 45 1.7 1.7 0.00 3.75 3.75 91 1014.4
20260506212103 58 90 1.7 3.5 0.00 3.75 3.75 91 1014.4
20260506212002 58 68 1.7 1.7 0.00 3.75 3.75 91 1014.5
20260506211902 58 68 0.9 1.7 0.00 3.75 3.75 91 1014.3
20260506211801 59 68 0.9 1.7 0.00 3.75 3.75 91 1014.6
20260506211701 59 68 1.7 1.7 0.00 3.75 3.75 91 1014.7
20260506211601 59 68 1.7 1.7 0.00 3.75 3.75 91 1014.5
20260506211502 59 135 0.9 1.7 0.00 3.75 3.75 91 1014.5
20260506211400 59 68 0.9 3.5 0.00 3.75 3.75 91 1014.7
20260506211301 59 68 0.9 1.7 0.00 3.75 3.75 91 1014.2
20260506211201 59 68 1.7 3.5 0.00 3.75 3.75 91 1014.4
20260506211101 59 68 1.7 1.7 0.00 3.75 3.75 91 1014.5
20260506211001 59 90 1.7 1.7 0.00 3.75 3.75 91 1014.3
20260506210902 59 68 1.7 3.5 0.00 3.75 3.75 91 1014.4
20260506210802 59 68 1.7 3.5 0.00 3.75 3.75 91 1014.5
20260506210703 59 45 1.7 1.7 0.00 3.75 3.75 92 1014.5
20260506210602 59 90 0.9 1.7 0.00 3.75 3.75 92 1014.4
20260506210502 59 68 1.7 1.7 0.00 3.75 3.75 92 1014.5
20260506210401 59 45 1.7 3.5 0.00 3.75 3.75 92 1014.4
20260506210302 59 45 1.7 3.5 0.00 3.75 3.75 92 1014.4
20260506210202 59 68 1.7 1.7 0.00 3.75 3.75 92 1014.2
20260506210002 59 90 1.7 1.7 0.00 3.75 3.75 92 1014.3
20260506205901 59 68 1.7 1.7 0.00 3.75 3.75 92 1014.4
20260506205802 59 68 1.7 3.5 0.00 3.75 3.75 92 1014.2
20260506205702 60 112 0.9 1.7 0.00 3.75 3.75 92 1014.5
20260506205602 60 90 1.7 3.5 0.00 3.75 3.75 92 1014.4
20260506205501 60 90 1.7 1.7 0.00 3.75 3.75 92 1014.5
20260506205401 60 90 2.6 3.5 0.00 3.75 3.75 92 1014.3
20260506205301 60 68 1.7 3.5 0.00 3.75 3.75 92 1014.4